M I D A S
Marine Information and Data Acquisition System
Tripno 1496 of the Zeeleeuw from 2008-05-30 07:44:21 to 2008-05-30 14:10:02
Back to CruiseResearch ActivitiesStationsMapUnderway DataData graphs

EquipmentUnitsComment
TimeDGPSUTC
LatitudeDGPSDM.mWGS84
LongitudeDGPSDM.mWGS84
TemperatureSBE03/SBE38deg celciusITS90
ConductivitySBE21S/mITS90
SalinitySBE21 Practical Salinity Units
ChlorophylAChelsea fluorimeterg/lCalibrated in Aceton
Missing or incorrect values are displayed as -999
Sea surface data collected by the RV Zeeleeuw from 2008-05-30 07:44:13 to 2008-05-30 14:15:19
                                                                                    Next 1000 lines
Time Latitude Longitude Temperature Conductivity Salinity ChlorophylA
2008-05-30 07:44:23 51°13.623 2°56.049 19.8535 0.397643 2.434992 -1.731873
2008-05-30 07:44:28 51°13.623 2°56.049 19.8556 0.397643 2.434992 -1.731873
2008-05-30 07:44:33 51°13.623 2°56.049 19.8489 0.397643 2.435038 -1.731873
2008-05-30 07:44:38 51°13.623 2°56.049 19.841 0.39754 2.434414 -1.731873
2008-05-30 07:44:43 51°13.623 2°56.048 19.8216 0.39754 2.434414 -1.766697
2008-05-30 07:44:48 51°13.623 2°56.047 19.8037 0.39754 2.43446 -1.731873
2008-05-30 07:44:53 51°13.624 2°56.046 19.8395 0.39754 2.43446 -1.766697
2008-05-30 07:44:58 51°13.624 2°56.044 19.7898 0.39754 2.43446 -1.766697
2008-05-30 07:45:03 51°13.625 2°56.041 19.8218 0.39754 2.434414 -1.766697
2008-05-30 07:45:08 51°13.626 2°56.037 19.8272 0.39754 2.434414 -1.731873
2008-05-30 07:45:13 51°13.627 2°56.033 19.847 0.39754 2.434414 -1.731873
2008-05-30 07:45:18 51°13.628 2°56.027 19.8171 0.39754 2.434414 -1.766697
2008-05-30 07:45:24 51°13.63 2°56.02 19.8378 0.397437 2.433744 -1.766697
2008-05-30 07:45:29 51°13.632 2°56.013 19.8333 0.397437 2.433744 -1.766697
2008-05-30 07:45:33 51°13.634 2°56.008 19.8396 0.397437 2.433744 -1.731873
2008-05-30 07:45:38 51°13.636 2°56 19.8661 0.397437 2.433698 -1.731873
2008-05-30 07:45:43 51°13.638 2°55.991 19.8539 0.397437 2.433698 -1.731873
2008-05-30 07:45:49 51°13.641 2°55.981 19.8557 0.397437 2.433698 -1.766697
2008-05-30 07:45:53 51°13.642 2°55.974 19.8613 0.397437 2.433698 -1.766697
2008-05-30 07:45:58 51°13.644 2°55.964 19.8705 0.397437 2.433698 -1.766697
2008-05-30 07:46:03 51°13.647 2°55.954 19.8655 0.397437 2.433744 -1.731873
2008-05-30 07:46:09 51°13.65 2°55.942 19.8639 0.397437 2.433698 -1.766697
2008-05-30 07:46:13 51°13.652 2°55.934 19.8647 0.397334 2.433074 -1.766697
2008-05-30 07:46:18 51°13.655 2°55.925 19.8749 0.397334 2.433074 -1.731873
2008-05-30 07:46:23 51°13.658 2°55.915 19.8793 0.397334 2.433074 -1.766697
2008-05-30 07:46:28 51°13.661 2°55.905 19.8673 0.397334 2.433074 -1.766697
2008-05-30 07:46:34 51°13.664 2°55.894 19.8689 0.397334 2.433028 -1.731873
2008-05-30 07:46:39 51°13.667 2°55.885 19.8687 0.397334 2.433028 -1.731873
2008-05-30 07:46:43 51°13.67 2°55.878 19.8688 0.397334 2.433028 -1.731873
2008-05-30 07:46:48 51°13.673 2°55.869 19.8678 0.397334 2.433074 -1.731873
2008-05-30 07:46:53 51°13.677 2°55.859 19.866 0.397334 2.433074 -1.731873
2008-05-30 07:46:59 51°13.681 2°55.848 19.8567 0.397334 2.433074 -1.731873
2008-05-30 07:47:04 51°13.685 2°55.839 19.8475 0.397231 2.432404 -1.766697
2008-05-30 07:47:08 51°13.688 2°55.831 19.86 0.397231 2.43245 -1.731873
2008-05-30 07:47:13 51°13.692 2°55.822 19.8621 0.397231 2.43245 -1.766697
2008-05-30 07:47:19 51°13.697 2°55.811 19.8694 0.397231 2.43245 -1.766697
2008-05-30 07:47:24 51°13.701 2°55.802 19.8452 0.397231 2.43245 -1.731873
2008-05-30 07:47:29 51°13.706 2°55.792 19.8503 0.397231 2.43245 -1.731873
2008-05-30 07:47:33 51°13.709 2°55.785 19.8637 0.397231 2.43245 -1.766697
2008-05-30 07:47:39 51°13.715 2°55.774 19.8692 0.397231 2.432496 -1.731873
2008-05-30 07:47:44 51°13.72 2°55.765 19.8772 0.397231 2.432496 -1.731873
2008-05-30 07:47:49 51°13.725 2°55.756 19.8772 0.397128 2.431827 -1.766697
2008-05-30 07:47:53 51°13.729 2°55.749 19.8716 0.397128 2.431827 -1.731873
2008-05-30 07:47:59 51°13.736 2°55.738 19.8779 0.397128 2.431827 -1.731873
2008-05-30 07:48:03 51°13.74 2°55.732 19.8749 0.397128 2.431827 -1.766697
2008-05-30 07:48:08 51°13.746 2°55.724 19.8755 0.397128 2.431827 -1.731873
2008-05-30 07:48:14 51°13.752 2°55.715 19.8931 0.397128 2.431827 -1.766697
2008-05-30 07:48:19 51°13.758 2°55.708 19.8831 0.397128 2.431827 -1.731873
2008-05-30 07:48:24 51°13.764 2°55.701 19.8805 0.397128 2.431827 -1.766697
2008-05-30 07:48:28 51°13.77 2°55.696 19.8789 0.397128 2.431827 -1.766697
2008-05-30 07:48:33 51°13.776 2°55.69 19.8797 0.397128 2.431873 -1.766697
2008-05-30 07:48:39 51°13.784 2°55.682 19.8881 0.397128 2.431873 -1.766697
2008-05-30 07:48:44 51°13.791 2°55.677 19.8777 0.397025 2.431203 -1.731873
2008-05-30 07:48:48 51°13.796 2°55.672 19.8866 0.397025 2.431203 -1.766697
2008-05-30 07:48:53 51°13.803 2°55.667 19.8704 0.397025 2.431249 -1.731873
2008-05-30 07:48:59 51°13.812 2°55.66 19.8758 0.397025 2.431249 -1.731873
2008-05-30 07:49:04 51°13.818 2°55.655 19.856 0.397025 2.431249 -1.766697
2008-05-30 07:49:08 51°13.824 2°55.651 19.8788 0.397025 2.431295 -1.766697
2008-05-30 07:49:13 51°13.831 2°55.647 19.8765 0.397025 2.431295 -1.766697
2008-05-30 07:49:18 51°13.838 2°55.642 19.8879 0.397025 2.431295 -1.731873
2008-05-30 07:49:24 51°13.846 2°55.638 19.8878 0.397025 2.43134 -1.731873
2008-05-30 07:49:29 51°13.853 2°55.634 19.8752 0.397025 2.43134 -1.731873
2008-05-30 07:49:33 51°13.858 2°55.632 19.8825 0.397025 2.431386 -1.766697
2008-05-30 07:49:38 51°13.865 2°55.63 19.896 0.397025 2.431386 -1.731873
2008-05-30 07:49:43 51°13.872 2°55.628 19.8974 0.397025 2.431386 -1.766697
2008-05-30 07:49:49 51°13.881 2°55.627 19.8875 0.396922 2.430717 -1.731873
2008-05-30 07:49:54 51°13.888 2°55.627 19.8917 0.396922 2.430625 -1.731873
2008-05-30 07:49:59 51°13.895 2°55.627 19.8821 0.396922 2.430625 -1.731873
2008-05-30 07:50:03 51°13.9 2°55.628 19.9021 0.396922 2.430579 -1.766697
2008-05-30 07:50:09 51°13.908 2°55.631 19.9055 0.396922 2.430533 -1.731873
2008-05-30 07:50:14 51°13.914 2°55.633 19.9087 0.396922 2.430487 -1.766697
2008-05-30 07:50:19 51°13.92 2°55.635 19.9147 0.396922 2.430487 -1.766697
2008-05-30 07:50:23 51°13.924 2°55.638 19.8999 0.396922 2.430487 -1.731873
2008-05-30 07:50:28 51°13.929 2°55.641 19.9109 0.396922 2.430487 -1.731873
2008-05-30 07:50:34 51°13.935 2°55.645 19.8959 0.396922 2.430533 -1.766697
2008-05-30 07:50:39 51°13.939 2°55.648 19.9117 0.396922 2.430487 -1.766697
2008-05-30 07:50:43 51°13.942 2°55.651 19.9049 0.396922 2.430533 -1.766697
2008-05-30 07:50:48 51°13.946 2°55.654 19.915 0.396922 2.430533 -1.731873
2008-05-30 07:50:53 51°13.949 2°55.657 19.9156 0.396922 2.430579 -1.766697
2008-05-30 07:50:59 51°13.952 2°55.66 19.9253 0.396922 2.430579 -1.766697
2008-05-30 07:51:03 51°13.953 2°55.661 19.9258 0.396922 2.430625 -1.731873
2008-05-30 07:51:09 51°13.954 2°55.662 19.9279 0.396922 2.430671 -1.766697
2008-05-30 07:51:13 51°13.954 2°55.662 19.9111 0.396819 2.430001 -1.731873
2008-05-30 07:51:18 51°13.955 2°55.661 19.8998 0.396819 2.430047 -1.766697
2008-05-30 07:51:24 51°13.954 2°55.657 19.9013 0.396819 2.430001 -1.731873
2008-05-30 07:51:28 51°13.954 2°55.653 19.8425 0.396819 2.430001 -1.731873
2008-05-30 07:51:33 51°13.954 2°55.648 19.8131 0.396819 2.429909 -1.731873
2008-05-30 07:51:38 51°13.954 2°55.641 19.8562 0.396819 2.429817 -1.731873
2008-05-30 07:51:44 51°13.956 2°55.632 19.842 0.396819 2.42968 -1.766697
2008-05-30 07:51:49 51°13.958 2°55.623 19.8831 0.396819 2.42968 -1.766697
2008-05-30 07:51:53 51°13.96 2°55.616 19.8859 0.396819 2.429634 -1.766697
2008-05-30 07:51:58 51°13.963 2°55.606 19.8774 0.396819 2.429634 -1.766697
2008-05-30 07:52:03 51°13.966 2°55.598 19.8854 0.396819 2.42968 -1.766697
2008-05-30 07:52:09 51°13.971 2°55.587 19.8776 0.396819 2.429726 -1.766697
2008-05-30 07:52:13 51°13.974 2°55.581 19.8813 0.396819 2.429817 -1.766697
2008-05-30 07:52:18 51°13.979 2°55.574 19.8841 0.396819 2.429863 -1.731873
2008-05-30 07:52:23 51°13.984 2°55.566 19.8938 0.396819 2.429863 -1.731873
2008-05-30 07:52:29 51°13.99 2°55.558 19.9003 0.396819 2.429863 -1.731873
2008-05-30 07:52:33 51°13.994 2°55.552 19.893 0.396819 2.429909 -1.731873
2008-05-30 07:52:38 51°14 2°55.546 19.9034 0.396819 2.430001 -1.766697
2008-05-30 07:52:43 51°14.005 2°55.539 19.8951 0.396819 2.430093 -1.731873
2008-05-30 07:52:48 51°14.011 2°55.533 19.9111 0.396819 2.430185 -1.766697
2008-05-30 07:52:53 51°14.018 2°55.528 19.9067 0.396819 2.430276 -1.766697
2008-05-30 07:52:58 51°14.025 2°55.524 19.9142 0.396819 2.430276 -1.766697
2008-05-30 07:53:03 51°14.031 2°55.517 19.881 0.396819 2.430322 -1.766697
2008-05-30 07:53:08 51°14.037 2°55.511 19.9083 0.396819 2.430414 -1.731873
2008-05-30 07:53:13 51°14.043 2°55.506 19.9106 0.396819 2.430506 -1.766697
2008-05-30 07:53:18 51°14.05 2°55.5 19.9236 0.396819 2.430506 -1.766697
2008-05-30 07:53:23 51°14.057 2°55.495 19.9321 0.396819 2.43046 -1.766697
2008-05-30 07:53:29 51°14.065 2°55.489 19.9194 0.396819 2.43046 -1.766697
2008-05-30 07:53:33 51°14.071 2°55.485 19.9089 0.396819 2.430506 -1.766697
2008-05-30 07:53:38 51°14.078 2°55.479 19.9307 0.396819 2.430598 -1.766697
2008-05-30 07:53:44 51°14.087 2°55.473 19.9211 0.396819 2.430689 -1.766697
2008-05-30 07:53:49 51°14.094 2°55.467 19.9221 0.396819 2.430735 -1.731873
2008-05-30 07:53:53 51°14.099 2°55.462 19.91 0.396819 2.430781 -1.766697
2008-05-30 07:53:58 51°14.106 2°55.457 19.9154 0.396819 2.430781 -1.766697
2008-05-30 07:54:03 51°14.114 2°55.452 19.9288 0.396819 2.430781 -1.766697
2008-05-30 07:54:09 51°14.122 2°55.446 19.915 0.396819 2.430781 -1.731873
2008-05-30 07:54:13 51°14.127 2°55.442 19.9167 0.396819 2.430735 -1.766697
2008-05-30 07:54:18 51°14.134 2°55.437 19.9464 0.396819 2.430735 -1.731873
2008-05-30 07:54:23 51°14.141 2°55.432 19.9049 0.396819 2.430689 -1.731873
2008-05-30 07:54:29 51°14.149 2°55.425 19.9373 0.396819 2.430689 -1.731873
2008-05-30 07:54:33 51°14.154 2°55.421 19.9526 0.396819 2.430735 -1.731873
2008-05-30 07:54:38 51°14.161 2°55.416 19.9585 0.396819 2.430781 -1.766697
2008-05-30 07:54:43 51°14.168 2°55.41 19.9223 0.396819 2.430781 -1.766697
2008-05-30 07:54:48 51°14.175 2°55.404 19.8962 0.396819 2.430781 -1.731873
2008-05-30 07:54:53 51°14.181 2°55.398 19.9055 0.396716 2.430157 -1.731873
2008-05-30 07:54:58 51°14.188 2°55.392 19.9154 0.396716 2.430157 -1.731873
2008-05-30 07:55:03 51°14.194 2°55.385 19.9431 0.396922 2.431497 -1.731873
2008-05-30 07:55:08 51°14.201 2°55.378 19.9438 0.396819 2.430781 -1.731873
2008-05-30 07:55:13 51°14.208 2°55.371 19.949 0.396819 2.430781 -1.766697
2008-05-30 07:55:18 51°14.214 2°55.364 19.9324 0.396922 2.431451 -1.731873
2008-05-30 07:55:23 51°14.22 2°55.356 19.903 0.396819 2.430781 -1.731873
2008-05-30 07:55:28 51°14.226 2°55.348 19.9333 0.396819 2.430781 -1.731873
2008-05-30 07:55:33 51°14.232 2°55.339 19.9384 0.396922 2.431451 -1.731873
2008-05-30 07:55:38 51°14.238 2°55.33 19.9286 0.396819 2.430873 -1.766697
2008-05-30 07:55:43 51°14.243 2°55.321 19.9174 0.396922 2.431589 -1.766697
2008-05-30 07:55:48 51°14.249 2°55.311 19.9108 0.396819 2.430919 -1.731873
2008-05-30 07:55:53 51°14.254 2°55.302 19.9267 0.396922 2.431635 -1.766697
2008-05-30 07:55:58 51°14.259 2°55.292 19.9317 0.396922 2.431635 -1.766697
2008-05-30 07:56:04 51°14.265 2°55.28 19.9116 0.396819 2.430965 -1.766697
2008-05-30 07:56:09 51°14.27 2°55.27 19.9263 0.396819 2.430919 -1.731873
2008-05-30 07:56:13 51°14.274 2°55.262 19.9318 0.396922 2.431589 -1.766697
2008-05-30 07:56:18 51°14.28 2°55.251 19.9142 0.396819 2.430873 -1.766697
2008-05-30 07:56:23 51°14.286 2°55.241 19.9238 0.396819 2.430873 -1.731873
2008-05-30 07:56:28 51°14.292 2°55.229 19.9265 0.396819 2.430873 -1.731873
2008-05-30 07:56:33 51°14.298 2°55.217 19.9307 0.396819 2.430827 -1.766697
2008-05-30 07:56:38 51°14.305 2°55.204 19.9347 0.396819 2.430827 -1.731873
2008-05-30 07:56:43 51°14.313 2°55.191 19.9117 0.396819 2.430827 -1.766697
2008-05-30 07:56:48 51°14.32 2°55.177 19.9311 0.396819 2.430827 -1.766697
2008-05-30 07:56:53 51°14.328 2°55.162 19.935 0.396819 2.430827 -1.731873
2008-05-30 07:56:58 51°14.336 2°55.146 19.9211 0.396819 2.430827 -1.731873
2008-05-30 07:57:03 51°14.344 2°55.129 19.9139 0.396819 2.430827 -1.766697
2008-05-30 07:57:08 51°14.352 2°55.111 19.903 0.396819 2.430873 -1.731873
2008-05-30 07:57:13 51°14.362 2°55.094 19.8801 0.396819 2.430919 -1.766697
2008-05-30 07:57:18 51°14.372 2°55.076 19.8623 0.396922 2.431635 -1.766697
2008-05-30 07:57:23 51°14.382 2°55.058 19.8971 0.396819 2.431011 -1.731873
2008-05-30 07:57:28 51°14.393 2°55.041 19.9143 0.396819 2.431011 -1.731873
2008-05-30 07:57:33 51°14.406 2°55.025 19.9045 0.396922 2.431635 -1.766697
2008-05-30 07:57:38 51°14.418 2°55.008 19.9051 0.396819 2.430919 -1.766697
2008-05-30 07:57:43 51°14.431 2°54.993 19.9113 0.396819 2.430873 -1.731873
2008-05-30 07:57:48 51°14.445 2°54.977 19.8827 0.396922 2.431589 -1.766697
2008-05-30 07:57:53 51°14.459 2°54.963 19.902 0.396922 2.431635 -1.766697
2008-05-30 07:57:58 51°14.473 2°54.949 19.8971 0.396922 2.431635 -1.766697
2008-05-30 07:58:03 51°14.487 2°54.935 19.8641 0.396922 2.431635 -1.766697
2008-05-30 07:58:08 51°14.502 2°54.921 19.898 0.396922 2.431681 -1.731873
2008-05-30 07:58:13 51°14.517 2°54.909 19.8725 0.396922 2.431681 -1.766697
2008-05-30 07:58:18 51°14.532 2°54.897 19.9124 0.396922 2.431681 -1.766697
2008-05-30 07:58:23 51°14.548 2°54.885 19.9016 0.396922 2.431635 -1.731873
2008-05-30 07:58:28 51°14.563 2°54.872 19.9006 0.396922 2.431635 -1.731873
2008-05-30 07:58:33 51°14.578 2°54.86 19.8798 0.396922 2.431635 -1.731873
2008-05-30 07:58:38 51°14.594 2°54.849 19.8941 0.397025 2.432397 -1.731873
2008-05-30 07:58:43 51°14.61 2°54.839 19.9085 0.396922 2.431773 -1.731873
2008-05-30 07:58:48 51°14.626 2°54.829 19.9033 0.397025 2.432489 -1.731873
2008-05-30 07:58:53 51°14.642 2°54.819 19.9212 0.397025 2.432489 -1.766697
2008-05-30 07:58:58 51°14.658 2°54.809 19.9053 0.397025 2.432489 -1.766697
2008-05-30 07:59:03 51°14.675 2°54.799 19.9241 0.397025 2.432489 -1.731873
2008-05-30 07:59:08 51°14.691 2°54.789 19.9104 0.396922 2.431865 -1.766697
2008-05-30 07:59:13 51°14.707 2°54.78 19.9221 0.397025 2.432581 -1.766697
2008-05-30 07:59:18 51°14.723 2°54.77 19.9123 0.397025 2.432581 -1.731873
2008-05-30 07:59:23 51°14.739 2°54.76 19.9213 0.397025 2.432627 -1.766697
2008-05-30 07:59:28 51°14.756 2°54.75 19.9201 0.397025 2.432627 -1.766697
2008-05-30 07:59:33 51°14.772 2°54.74 19.9237 0.397025 2.432673 -1.766697
2008-05-30 07:59:38 51°14.788 2°54.73 19.9311 0.397025 2.432719 -1.766697
2008-05-30 07:59:43 51°14.804 2°54.719 19.9295 0.397025 2.432765 -1.731873
2008-05-30 07:59:48 51°14.819 2°54.708 19.9081 0.397025 2.432811 -1.731873
2008-05-30 07:59:53 51°14.835 2°54.697 19.9356 0.397025 2.432857 -1.731873
2008-05-30 07:59:58 51°14.851 2°54.686 19.9105 0.397025 2.432857 -1.731873
2008-05-30 08:00:03 51°14.866 2°54.675 19.9276 0.397025 2.432903 -1.766697
2008-05-30 08:00:08 51°14.882 2°54.664 19.933 0.397128 2.433573 -1.731873
2008-05-30 08:00:13 51°14.898 2°54.653 19.9337 0.397025 2.432903 -1.766697
2008-05-30 08:00:18 51°14.914 2°54.642 19.9201 0.397128 2.433619 -1.766697
2008-05-30 08:00:23 51°14.93 2°54.63 19.9316 0.397128 2.433619 -1.766697
2008-05-30 08:00:28 51°14.946 2°54.619 19.9225 0.397128 2.433619 -1.766697
2008-05-30 08:00:33 51°14.961 2°54.608 19.9159 0.397128 2.433619 -1.731873
2008-05-30 08:00:38 51°14.977 2°54.597 19.9199 0.397128 2.433619 -1.731873
2008-05-30 08:00:43 51°14.993 2°54.585 19.9291 0.397128 2.433619 -1.731873
2008-05-30 08:00:48 51°15.009 2°54.574 19.9345 0.397128 2.433619 -1.766697
2008-05-30 08:00:53 51°15.024 2°54.563 19.9304 0.397128 2.433619 -1.731873
2008-05-30 08:00:58 51°15.04 2°54.551 19.9244 0.397128 2.433619 -1.731873
2008-05-30 08:01:03 51°15.056 2°54.539 19.9167 0.397128 2.433619 -1.731873
2008-05-30 08:01:08 51°15.071 2°54.527 19.9226 0.397128 2.433665 -1.766697
2008-05-30 08:01:13 51°15.087 2°54.515 19.9309 0.397128 2.433665 -1.731873
2008-05-30 08:01:18 51°15.102 2°54.502 19.9391 0.397231 2.434381 -1.731873
2008-05-30 08:01:23 51°15.117 2°54.489 19.9162 0.397128 2.433757 -1.766697
2008-05-30 08:01:28 51°15.133 2°54.477 19.9302 0.397128 2.433757 -1.766697
2008-05-30 08:01:33 51°15.148 2°54.465 19.929 0.397128 2.433757 -1.766697
2008-05-30 08:01:38 51°15.164 2°54.453 19.9256 0.397231 2.434473 -1.731873
2008-05-30 08:01:43 51°15.179 2°54.441 19.9281 0.397231 2.434473 -1.731873
2008-05-30 08:01:48 51°15.195 2°54.43 19.9345 0.397231 2.434473 -1.731873
2008-05-30 08:01:53 51°15.21 2°54.418 19.9356 0.397231 2.434473 -1.766697
2008-05-30 08:01:58 51°15.226 2°54.406 19.9304 0.397231 2.434473 -1.766697
2008-05-30 08:02:03 51°15.242 2°54.394 19.9312 0.397231 2.434473 -1.766697
2008-05-30 08:02:08 51°15.258 2°54.383 19.9311 0.397334 2.43519 -1.766697
2008-05-30 08:02:13 51°15.273 2°54.371 19.9245 0.397334 2.43519 -1.731873
2008-05-30 08:02:18 51°15.289 2°54.36 19.9408 0.397231 2.434519 -1.766697
2008-05-30 08:02:23 51°15.305 2°54.349 19.9203 0.397231 2.434519 -1.766697
2008-05-30 08:02:28 51°15.321 2°54.337 19.9467 0.397231 2.434519 -1.766697
2008-05-30 08:02:33 51°15.336 2°54.326 19.9158 0.397334 2.435236 -1.731873
2008-05-30 08:02:38 51°15.351 2°54.314 19.9361 0.397334 2.435236 -1.766697
2008-05-30 08:02:43 51°15.367 2°54.302 19.9267 0.397334 2.435282 -1.731873
2008-05-30 08:02:48 51°15.382 2°54.291 19.9491 0.397334 2.435328 -1.766697
2008-05-30 08:02:53 51°15.398 2°54.278 19.9471 0.397437 2.435952 -1.766697
2008-05-30 08:02:58 51°15.413 2°54.265 19.951 0.397437 2.435952 -1.766697
2008-05-30 08:03:03 51°15.427 2°54.252 19.9427 0.397231 2.434657 -1.766697
2008-05-30 08:03:08 51°15.442 2°54.239 19.9445 0.397437 2.436044 -1.731873
2008-05-30 08:03:13 51°15.457 2°54.225 19.9385 0.397334 2.43542 -1.731873
2008-05-30 08:03:18 51°15.471 2°54.211 19.9484 0.397437 2.43609 -1.766697
2008-05-30 08:03:23 51°15.485 2°54.197 19.9286 0.397334 2.435466 -1.766697
2008-05-30 08:03:28 51°15.5 2°54.183 19.9487 0.397334 2.435466 -1.766697
2008-05-30 08:03:33 51°15.514 2°54.169 19.9481 0.397437 2.436136 -1.731873
2008-05-30 08:03:38 51°15.528 2°54.155 19.947 0.397437 2.436136 -1.731873
2008-05-30 08:03:43 51°15.543 2°54.14 19.9298 0.397437 2.436136 -1.731873
2008-05-30 08:03:48 51°15.557 2°54.126 19.9478 0.397437 2.436136 -1.731873
2008-05-30 08:03:53 51°15.571 2°54.111 19.9474 0.397437 2.436136 -1.766697
2008-05-30 08:03:58 51°15.586 2°54.097 19.922 0.397437 2.436136 -1.766697
2008-05-30 08:04:03 51°15.6 2°54.083 19.9459 0.397437 2.436136 -1.766697
2008-05-30 08:04:08 51°15.614 2°54.068 19.9266 0.397437 2.436182 -1.766697
2008-05-30 08:04:13 51°15.628 2°54.054 19.9391 0.397437 2.436228 -1.766697
2008-05-30 08:04:18 51°15.642 2°54.039 19.9371 0.397437 2.436182 -1.731873
2008-05-30 08:04:23 51°15.657 2°54.025 19.9477 0.39754 2.436899 -1.731873
2008-05-30 08:04:28 51°15.671 2°54.011 19.9451 0.39754 2.436899 -1.731873
2008-05-30 08:04:33 51°15.686 2°53.997 19.9417 0.39754 2.436899 -1.766697
2008-05-30 08:04:38 51°15.701 2°53.984 19.9483 0.39754 2.436899 -1.731873
2008-05-30 08:04:43 51°15.715 2°53.97 19.9263 0.39754 2.436899 -1.731873
2008-05-30 08:04:48 51°15.73 2°53.956 19.9481 0.39754 2.436945 -1.731873
2008-05-30 08:04:53 51°15.744 2°53.942 18.6772 0.394863 2.417643 -1.662225
2008-05-30 08:04:58 51°15.759 2°53.928 17.6635 0.394863 2.417643 -1.662225
2008-05-30 08:05:03 51°15.774 2°53.914 16.9864 0.385287 2.349794 -1.662225
2008-05-30 08:05:08 51°15.788 2°53.901 16.6967 0.360783 2.196713 -1.070216
2008-05-30 08:05:13 51°15.803 2°53.888 16.582 1.24 8.161542 2.830078
2008-05-30 08:05:18 51°15.818 2°53.875 16.4069 1.691043 11.318545 9.829713
2008-05-30 08:05:23 51°15.833 2°53.862 16.3162 2.151379 14.77788 13.834479
2008-05-30 08:05:28 51°15.848 2°53.849 16.2925 2.151379 14.77788 13.834479
2008-05-30 08:05:33 51°15.863 2°53.836 16.2296 2.854391 20.445941 13.59071
2008-05-30 08:05:38 51°15.878 2°53.824 16.1881 3.573775 26.540786 12.789757
2008-05-30 08:05:43 51°15.893 2°53.811 16.1489 3.783133 28.597326 12.650461
2008-05-30 08:05:48 51°15.908 2°53.797 16.1459 3.857676 29.438658 12.754933
2008-05-30 08:05:53 51°15.922 2°53.784 16.1025 3.896458 29.961202 12.789757
2008-05-30 08:05:58 51°15.937 2°53.77 16.1341 3.896458 29.961202 12.789757
2008-05-30 08:06:03 51°15.951 2°53.756 16.0794 3.908384 30.192005 12.754933
2008-05-30 08:06:08 51°15.966 2°53.742 16.054 3.917096 30.358351 12.789757
2008-05-30 08:06:13 51°15.981 2°53.729 16.0228 3.919067 30.445767 12.824581
2008-05-30 08:06:18 51°15.996 2°53.715 16.0296 3.92446 30.540242 12.789757
2008-05-30 08:06:23 51°16.01 2°53.702 16.0047 3.926327 30.586336 12.998701
2008-05-30 08:06:28 51°16.025 2°53.688 16.0095 3.926327 30.586336 12.998701
2008-05-30 08:06:33 51°16.04 2°53.674 16.0012 3.928401 30.63245 13.06835
2008-05-30 08:06:38 51°16.055 2°53.661 15.9908 3.925498 30.63478 13.103174
2008-05-30 08:06:43 51°16.069 2°53.647 15.9722 3.924254 30.652803 13.207646
2008-05-30 08:06:48 51°16.084 2°53.634 15.9692 3.90165 30.480025 13.24247
2008-05-30 08:06:53 51°16.099 2°53.62 15.9637 3.934728 30.77982 13.24247
2008-05-30 08:06:58 51°16.113 2°53.606 15.9697 3.934728 30.77982 13.24247
2008-05-30 08:07:03 51°16.128 2°53.592 15.9488 3.928921 30.740589 13.24247
2008-05-30 08:07:08 51°16.143 2°53.579 15.9666 3.928507 30.75085 13.172822
2008-05-30 08:07:13 51°16.157 2°53.566 15.9565 3.931618 30.790601 13.24247
2008-05-30 08:07:18 51°16.172 2°53.553 15.9364 3.932552 30.812023 13.24247
2008-05-30 08:07:23 51°16.187 2°53.539 15.92 3.93027 30.800346 13.172822
2008-05-30 08:07:28 51°16.202 2°53.526 15.9221 3.93027 30.800346 13.172822
2008-05-30 08:07:33 51°16.216 2°53.513 15.9168 3.928508 30.789393 13.346942
2008-05-30 08:07:38 51°16.231 2°53.499 15.9319 3.926952 30.778982 13.312118
2008-05-30 08:07:43 51°16.246 2°53.487 15.9155 3.927574 30.788209 13.381766
2008-05-30 08:07:48 51°16.261 2°53.474 15.9214 3.931826 30.831657 13.486238
2008-05-30 08:07:53 51°16.277 2°53.462 15.9192 3.933589 30.85974 13.555886
2008-05-30 08:07:58 51°16.292 2°53.449 15.9077 3.933589 30.85974 13.555886
2008-05-30 08:08:03 51°16.307 2°53.438 15.9074 3.934937 30.87914 13.555886
2008-05-30 08:08:08 51°16.323 2°53.426 15.9131 3.936804 30.900538 13.486238
2008-05-30 08:08:13 51°16.338 2°53.414 15.8876 3.93556 30.893477 13.346942
2008-05-30 08:08:18 51°16.354 2°53.403 15.8889 3.724065 29.056275 13.346942
2008-05-30 08:08:23 51°16.37 2°53.392 15.8772 3.934108 30.886509 13.172822
2008-05-30 08:08:28 51°16.386 2°53.38 15.8789 3.934108 30.886509 13.172822
2008-05-30 08:08:33 51°16.401 2°53.369 15.8693 3.936389 30.909636 13.06835
2008-05-30 08:08:38 51°16.417 2°53.358 15.8837 3.940226 30.945736 12.929053
2008-05-30 08:08:43 51°16.433 2°53.347 15.8814 3.933901 30.894873 12.789757
2008-05-30 08:08:48 51°16.448 2°53.335 15.8665 3.936493 30.925189 12.545989
2008-05-30 08:08:53 51°16.463 2°53.323 15.8728 3.937841 30.943358 12.545989
2008-05-30 08:08:58 51°16.479 2°53.311 15.8622 3.937841 30.943358 12.545989
2008-05-30 08:09:03 51°16.494 2°53.299 15.8683 3.938567 30.954814 12.371868
2008-05-30 08:09:08 51°16.51 2°53.288 15.8589 3.937634 30.951111 12.267396
2008-05-30 08:09:13 51°16.526 2°53.277 15.8511 3.938153 30.956926 12.232572
2008-05-30 08:09:18 51°16.541 2°53.266 15.8497 3.941056 30.983622 12.267396
2008-05-30 08:09:23 51°16.557 2°53.253 15.8392 3.938879 30.96775 12.162924
2008-05-30 08:09:28 51°16.572 2°53.241 15.8453 3.938879 30.96775 12.162924
2008-05-30 08:09:33 51°16.587 2°53.228 15.8413 3.940849 30.988196 12.1281
2008-05-30 08:09:38 51°16.602 2°53.215 15.8358 3.941575 30.99647 12.1281
2008-05-30 08:09:43 51°16.617 2°53.201 15.8332 3.942819 31.011846 12.1281
2008-05-30 08:09:48 51°16.632 2°53.188 15.8326 3.945101 31.038233 12.023628
2008-05-30 08:09:53 51°16.647 2°53.174 15.8231 3.947797 31.066987 12.058452
2008-05-30 08:09:58 51°16.661 2°53.16 15.8266 3.947797 31.066987 12.058452
2008-05-30 08:10:03 51°16.676 2°53.146 15.8255 3.945723 31.052015 11.95398
2008-05-30 08:10:08 51°16.691 2°53.132 15.826 3.948212 31.076395 11.849508
2008-05-30 08:10:13 51°16.705 2°53.118 15.8218 3.948419 31.080779 11.849508
2008-05-30 08:10:18 51°16.72 2°53.104 15.8184 3.949145 31.090353 11.849508
2008-05-30 08:10:23 51°16.735 2°53.09 15.8253 3.948316 31.085646 11.745035
2008-05-30 08:10:28 51°16.749 2°53.076 15.8131 3.948316 31.085646 11.745035
2008-05-30 08:10:33 51°16.764 2°53.062 15.8137 3.950597 31.108864 11.77986
2008-05-30 08:10:38 51°16.779 2°53.049 15.813 3.951842 31.120421 11.77986
2008-05-30 08:10:43 51°16.793 2°53.035 15.8113 3.949975 31.105977 11.77986
2008-05-30 08:10:48 51°16.808 2°53.021 15.8149 3.952153 31.128293 11.77986
2008-05-30 08:10:53 51°16.822 2°53.007 15.8011 3.952464 31.131022 11.814684
2008-05-30 08:10:58 51°16.836 2°52.992 15.8052 3.952464 31.131022 11.814684
2008-05-30 08:11:03 51°16.851 2°52.979 15.7932 3.952257 31.131775 11.745035
2008-05-30 08:11:08 51°16.865 2°52.964 15.7855 3.951842 31.130708 11.710211
2008-05-30 08:11:13 51°16.879 2°52.95 15.7835 3.951842 31.133925 11.675387
2008-05-30 08:11:18 51°16.894 2°52.935 15.7695 3.95319 31.147042 11.640563
2008-05-30 08:11:23 51°16.908 2°52.921 15.7572 3.951116 31.131414 11.640563
2008-05-30 08:11:28 51°16.922 2°52.905 15.7458 3.951116 31.131414 11.640563
2008-05-30 08:11:33 51°16.935 2°52.89 15.7404 3.951635 31.137895 11.640563
2008-05-30 08:11:38 51°16.949 2°52.875 15.7179 3.951531 31.142134 11.536091
2008-05-30 08:11:43 51°16.963 2°52.859 15.7148 3.95402 31.168493 11.466443
2008-05-30 08:11:48 51°16.976 2°52.843 15.7086 3.951842 31.15517 11.396795
2008-05-30 08:11:53 51°16.989 2°52.827 15.69 3.955265 31.195545 11.292323
2008-05-30 08:11:58 51°17.003 2°52.811 15.6844 3.955265 31.195545 11.292323
2008-05-30 08:12:03 51°17.016 2°52.795 15.6649 3.954643 31.199761 11.153027
2008-05-30 08:12:08 51°17.03 2°52.779 15.6551 3.957858 31.239005 11.01373
2008-05-30 08:12:13 51°17.043 2°52.763 15.6499 3.957547 31.245974 10.874434
2008-05-30 08:12:18 51°17.057 2°52.748 15.6327 3.959206 31.268339 10.804786
2008-05-30 08:12:23 51°17.071 2°52.732 15.6153 3.955784 31.247946 10.66549
2008-05-30 08:12:28 51°17.085 2°52.717 15.5992 3.955784 31.247946 10.66549
2008-05-30 08:12:33 51°17.099 2°52.702 15.5993 3.960762 31.304078 10.561018
2008-05-30 08:12:38 51°17.114 2°52.687 15.583 3.96211 31.323742 10.49137
2008-05-30 08:12:43 51°17.128 2°52.673 15.5843 3.961592 31.329574 10.386897
2008-05-30 08:12:48 51°17.142 2°52.658 15.5697 3.960451 31.330577 10.247601
2008-05-30 08:12:53 51°17.157 2°52.644 15.5548 3.960866 31.34855 10.212777
2008-05-30 08:12:58 51°17.171 2°52.628 15.5385 3.960866 31.34855 10.212777
2008-05-30 08:13:03 51°17.185 2°52.613 15.5457 3.962629 31.375825 10.143129
2008-05-30 08:13:08 51°17.199 2°52.598 15.5438 3.962422 31.385736 10.003833
2008-05-30 08:13:13 51°17.213 2°52.582 15.5254 3.960556 31.37905 9.934185
2008-05-30 08:13:18 51°17.227 2°52.567 15.515 3.962215 31.401532 9.829713
2008-05-30 08:13:23 51°17.24 2°52.551 15.5105 3.962319 31.413558 9.760064
2008-05-30 08:13:28 51°17.254 2°52.535 15.5167 3.962319 31.413558 9.760064
2008-05-30 08:13:33 51°17.268 2°52.52 15.503 3.962319 31.424022 9.72524
2008-05-30 08:13:38 51°17.282 2°52.504 15.5017 3.960971 31.419307 9.620768
2008-05-30 08:13:43 51°17.297 2°52.491 15.4953 3.96429 31.455185 9.481472
2008-05-30 08:13:48 51°17.312 2°52.477 15.4902 3.964186 31.462133 9.446648
2008-05-30 08:13:53 51°17.327 2°52.465 15.4827 3.963668 31.463449 9.411824
2008-05-30 08:13:58 51°17.343 2°52.454 15.4849 3.963668 31.463449 9.411824
2008-05-30 08:14:03 51°17.359 2°52.444 15.4808 3.962734 31.459129 9.307352
2008-05-30 08:14:08 51°17.376 2°52.435 15.4698 3.961801 31.457431 9.342176
2008-05-30 08:14:13 51°17.393 2°52.427 15.4603 3.962838 31.471855 9.272528
2008-05-30 08:14:18 51°17.41 2°52.42 15.4602 3.960661 31.457179 9.237704
2008-05-30 08:14:23 51°17.427 2°52.414 15.4543 3.969994 31.544386 9.20288
2008-05-30 08:14:28 51°17.444 2°52.408 15.4565 3.969994 31.544386 9.20288
2008-05-30 08:14:33 51°17.462 2°52.404 15.4524 3.969994 31.548993 9.168055
2008-05-30 08:14:38 51°17.479 2°52.399 15.4457 3.942098 31.30801 9.133231
2008-05-30 08:14:43 51°17.497 2°52.395 15.4485 3.968335 31.544175 9.168055
2008-05-30 08:14:48 51°17.514 2°52.391 15.4443 3.968128 31.548923 9.098407
2008-05-30 08:14:53 51°17.532 2°52.388 15.4399 3.969165 31.562723 9.063583
2008-05-30 08:14:58 51°17.55 2°52.385 15.4381 3.969165 31.562723 9.063583
2008-05-30 08:15:03 51°17.568 2°52.383 15.439 3.968646 31.561424 9.133231
2008-05-30 08:15:08 51°17.586 2°52.381 15.4305 3.969165 31.569316 9.063583
2008-05-30 08:15:13 51°17.604 2°52.379 15.4315 3.969061 31.571694 9.063583
2008-05-30 08:15:18 51°17.622 2°52.378 15.4258 3.967713 31.561723 9.063583
2008-05-30 08:15:23 51°17.64 2°52.377 15.4239 3.968128 31.568698 9.098407
2008-05-30 08:15:28 51°17.658 2°52.376 15.4231 3.968128 31.568698 9.098407
2008-05-30 08:15:33 51°17.676 2°52.376 15.4195 3.968024 31.570417 9.063583
2008-05-30 08:15:38 51°17.694 2°52.374 15.4128 3.966054 31.555588 9.133231
2008-05-30 08:15:43 51°17.712 2°52.374 15.4124 3.966884 31.566241 9.133231
2008-05-30 08:15:48 51°17.73 2°52.372 15.408 3.963254 31.53604 9.168055
2008-05-30 08:15:53 51°17.748 2°52.37 15.4104 3.963565 31.542754 9.133231
2008-05-30 08:15:58 51°17.766 2°52.368 15.4077 3.963565 31.542754 9.133231
2008-05-30 08:16:03 51°17.784 2°52.367 15.4119 3.966365 31.570222 9.098407
2008-05-30 08:16:08 51°17.802 2°52.366 15.3976 3.96481 31.559066 9.133231
2008-05-30 08:16:13 51°17.82 2°52.364 15.4017 3.96761 31.587202 9.063583
2008-05-30 08:16:18 51°17.838 2°52.363 15.3949 3.96201 31.540171 9.133231
2008-05-30 08:16:23 51°17.856 2°52.362 15.3924 3.964603 31.565807 8.993935
2008-05-30 08:16:28 51°17.874 2°52.361 15.3943 3.964603 31.565807 8.993935
2008-05-30 08:16:33 51°17.892 2°52.36 15.3923 3.966262 31.581848 9.098407
2008-05-30 08:16:38 51°17.91 2°52.359 15.3929 3.966469 31.58567 9.028759
2008-05-30 08:16:43 51°17.928 2°52.358 15.4026 3.968336 31.604216 9.063583
2008-05-30 08:16:48 51°17.946 2°52.36 15.3906 3.968647 31.609622 8.993935
2008-05-30 08:16:53 51°17.964 2°52.362 15.3922 3.965329 31.584138 9.063583
2008-05-30 08:16:58 51°17.982 2°52.366 15.3902 3.965329 31.584138 9.063583
2008-05-30 08:17:03 51°18 2°52.37 15.3857 3.960869 31.545888 8.993935
2008-05-30 08:17:08 51°18.018 2°52.376 15.3806 3.966677 31.598748 9.063583
2008-05-30 08:17:13 51°18.035 2°52.38 15.3851 3.965951 31.592304 9.098407
2008-05-30 08:17:18 51°18.053 2°52.387 15.372 3.966884 31.60125 9.133231
2008-05-30 08:17:23 51°18.071 2°52.393 15.3731 3.965225 31.587184 9.098407
2008-05-30 08:17:28 51°18.089 2°52.4 15.3736 3.965225 31.587184 9.098407
2008-05-30 08:17:33 51°18.107 2°52.407 15.3699 3.960662 31.548669 9.133231
2008-05-30 08:17:38 51°18.124 2°52.414 15.3722 3.965433 31.593653 9.133231
2008-05-30 08:17:43 51°18.142 2°52.421 15.3686 3.965329 31.595378 9.168055
2008-05-30 08:17:48 51°18.16 2°52.428 15.3662 3.964396 31.588414 9.237704
2008-05-30 08:17:53 51°18.177 2°52.437 15.3621 3.963566 31.585017 9.272528
2008-05-30 08:17:58 51°18.195 2°52.444 15.3642 3.963566 31.585017 9.272528
2008-05-30 08:18:03 51°18.212 2°52.455 15.3675 3.966055 31.609763 9.307352
2008-05-30 08:18:08 51°18.229 2°52.464 15.3643 3.963151 31.585302 9.307352
2008-05-30 08:18:13 51°18.246 2°52.476 15.36 3.964707 31.600438 9.272528
2008-05-30 08:18:18 51°18.263 2°52.487 15.3636 3.961907 31.576897 9.342176
2008-05-30 08:18:23 51°18.28 2°52.499 15.3597 3.961803 31.57796 9.342176
2008-05-30 08:18:28 51°18.297 2°52.511 15.3589 3.961803 31.57796 9.342176
2008-05-30 08:18:33 51°18.314 2°52.524 15.3574 3.961907 31.580204 9.342176
2008-05-30 08:18:38 51°18.331 2°52.536 15.353 3.960248 31.56613 9.307352
2008-05-30 08:18:43 51°18.348 2°52.548 15.3487 3.960351 31.567712 9.272528
2008-05-30 08:18:48 51°18.365 2°52.56 15.348 3.955996 31.529695 9.272528
2008-05-30 08:18:53 51°18.381 2°52.572 15.3456 3.956722 31.538123 9.168055
2008-05-30 08:18:58 51°18.399 2°52.583 15.347 3.956722 31.538123 9.168055
2008-05-30 08:19:03 51°18.415 2°52.595 15.3446 3.960974 31.576545 9.168055
2008-05-30 08:19:08 51°18.432 2°52.606 15.3435 3.958485 31.556423 9.133231
2008-05-30 08:19:13 51°18.45 2°52.617 15.3417 3.959833 31.571704 9.063583
2008-05-30 08:19:18 51°18.467 2°52.628 15.3441 3.9589 31.565398 9.063583
2008-05-30 08:19:23 51°18.484 2°52.639 15.3387 3.950085 31.488429 9.063583
2008-05-30 08:19:28 51°18.501 2°52.649 15.3391 3.950085 31.488429 9.063583
2008-05-30 08:19:33 51°18.518 2°52.66 15.3347 3.956618 31.548437 9.063583
2008-05-30 08:19:38 51°18.535 2°52.67 15.3338 3.957966 31.561736 8.959111
2008-05-30 08:19:43 51°18.552 2°52.681 15.3401 3.958589 31.568588 8.959111
2008-05-30 08:19:48 51°18.569 2°52.692 15.3355 3.959315 31.575699 8.889463
2008-05-30 08:19:53 51°18.587 2°52.703 15.3366 3.958589 31.570573 8.854639
2008-05-30 08:19:58 51°18.604 2°52.715 15.3299 3.958589 31.570573 8.854639
2008-05-30 08:20:03 51°18.621 2°52.727 15.3303 3.955892 31.548601 8.784991
2008-05-30 08:20:08 51°18.638 2°52.738 15.3213 3.951019 31.50662 8.750167
2008-05-30 08:20:13 51°18.655 2°52.749 15.3213 3.959937 31.586524 8.680519
2008-05-30 08:20:18 51°18.672 2°52.76 15.3266 3.957241 31.563226 8.610871
2008-05-30 08:20:23 51°18.689 2°52.771 15.3166 3.957967 31.570338 8.610871
2008-05-30 08:20:28 51°18.706 2°52.782 15.3157 3.957967 31.570338 8.610871
2008-05-30 08:20:33 51°18.723 2°52.794 15.3124 3.959315 31.584306 8.610871
2008-05-30 08:20:38 51°18.741 2°52.805 15.3094 3.959833 31.591563 8.506398
2008-05-30 08:20:43 51°18.758 2°52.815 15.3114 3.956204 31.562613 8.541223
2008-05-30 08:20:48 51°18.775 2°52.825 15.3072 3.958485 31.583554 8.541223
2008-05-30 08:20:53 51°18.793 2°52.835 15.3036 3.9589 31.589229 8.471574
2008-05-30 08:20:58 51°18.81 2°52.845 15.3044 3.9589 31.589229 8.471574
2008-05-30 08:21:03 51°18.828 2°52.854 15.3033 3.958278 31.58701 8.43675
2008-05-30 08:21:08 51°18.845 2°52.863 15.3051 3.9589 31.595193 8.471574
2008-05-30 08:21:13 51°18.863 2°52.872 15.3057 3.957759 31.587038 8.332278
2008-05-30 08:21:18 51°18.881 2°52.88 15.2988 3.954026 31.555831 8.297454
2008-05-30 08:21:23 51°18.898 2°52.888 15.3044 3.959108 31.603004 8.227806
2008-05-30 08:21:28 51°18.915 2°52.897 15.3046 3.959108 31.603004 8.227806
2008-05-30 08:21:33 51°18.933 2°52.905 15.2986 3.95693 31.585625 8.227806
2008-05-30 08:21:38 51°18.951 2°52.913 15.295 3.956411 31.582339 8.227806
2008-05-30 08:21:43 51°18.969 2°52.922 15.2969 3.958589 31.602371 8.123334
2008-05-30 08:21:48 51°18.986 2°52.93 15.2917 3.959004 31.606724 8.123334
2008-05-30 08:21:53 51°19.004 2°52.939 15.289 3.958071 31.598423 8.08851
2008-05-30 08:21:58 51°19.021 2°52.947 15.2872 3.958071 31.598423 8.08851
2008-05-30 08:22:03 51°19.039 2°52.956 15.2871 3.957345 31.591966 7.984038
2008-05-30 08:22:08 51°19.057 2°52.964 15.2879 3.957345 31.593955 8.018862
2008-05-30 08:22:13 51°19.074 2°52.973 15.2855 3.959108 31.611627 7.949214
2008-05-30 08:22:18 51°19.092 2°52.981 15.2823 3.958797 31.610186 7.949214
2008-05-30 08:22:23 51°19.11 2°52.99 15.2813 3.956826 31.595311 7.949214
2008-05-30 08:22:28 51°19.127 2°52.998 15.2844 3.956826 31.595311 7.949214
2008-05-30 08:22:33 51°19.144 2°53.006 15.2813 3.957656 31.604682 7.91439
2008-05-30 08:22:37 51°19.158 2°53.012 15.2785 3.958382 31.612468 7.844741
2008-05-30 08:22:43 51°19.176 2°53.021 15.2785 3.956619 31.598109 7.879566
2008-05-30 08:22:48 51°19.191 2°53.027 15.2752 3.953404 31.570833 7.879566
2008-05-30 08:22:53 51°19.204 2°53.034 15.2704 3.961078 31.640447 7.809917
2008-05-30 08:22:58 51°19.217 2°53.04 15.2648 3.961078 31.640447 7.809917
2008-05-30 08:23:03 51°19.229 2°53.047 15.2664 3.959834 31.630036 7.775093
2008-05-30 08:23:08 51°19.241 2°53.054 15.27 3.959627 31.628854 7.809917
2008-05-30 08:23:13 51°19.252 2°53.06 15.2639 3.961182 31.645357 7.809917
2008-05-30 08:23:18 51°19.263 2°53.067 15.2593 3.961493 31.649455 7.775093
2008-05-30 08:23:23 51°19.274 2°53.073 15.2555 3.961078 31.648422 7.740269
2008-05-30 08:23:28 51°19.284 2°53.078 15.2533 3.961078 31.648422 7.740269
2008-05-30 08:23:33 51°19.294 2°53.08 15.254 3.96056 31.646465 7.740269
2008-05-30 08:23:38 51°19.303 2°53.082 15.2533 3.960353 31.646612 7.670621
2008-05-30 08:23:43 51°19.311 2°53.082 15.2534 3.96056 31.649124 7.566149
2008-05-30 08:23:48 51°19.319 2°53.08 15.2495 3.959005 31.637268 7.635797
2008-05-30 08:23:53 51°19.327 2°53.078 15.2487 3.961182 31.659985 7.496501
2008-05-30 08:23:58 51°19.333 2°53.074 15.2497 3.961182 31.659985 7.496501
2008-05-30 08:24:03 51°19.339 2°53.07 15.251 3.955686 31.614366 7.566149
2008-05-30 08:24:08 51°19.345 2°53.066 15.2464 3.959108 31.646836 7.496501
2008-05-30 08:24:13 51°19.349 2°53.061 15.2501 3.960145 31.657403 7.461677
2008-05-30 08:24:18 51°19.353 2°53.055 15.2503 3.960975 31.666123 7.392029
2008-05-30 08:24:23 51°19.356 2°53.049 15.2495 3.960353 31.661246 7.287557
2008-05-30 08:24:28 51°19.359 2°53.041 15.252 3.960353 31.661246 7.287557
2008-05-30 08:24:33 51°19.36 2°53.032 15.2444 3.960457 31.663501 7.322381
2008-05-30 08:24:38 51°19.36 2°53.023 15.2429 3.960975 31.66812 7.322381
2008-05-30 08:24:43 51°19.359 2°53.013 15.2422 3.958901 31.649645 7.252733
2008-05-30 08:24:48 51°19.358 2°53.003 15.2529 3.961182 31.669302 7.322381
2008-05-30 08:24:53 51°19.357 2°52.992 15.2494 3.961079 31.668378 7.252733
2008-05-30 08:24:58 51°19.355 2°52.98 15.2416 3.961079 31.668378 7.252733
2008-05-30 08:25:03 51°19.353 2°52.967 15.2437 3.96139 31.672481 7.252733
2008-05-30 08:25:08 51°19.352 2°52.954 15.2408 3.961079 31.671041 7.357205
2008-05-30 08:25:13 51°19.351 2°52.94 15.2374 3.961701 31.677916 7.392029
2008-05-30 08:25:18 51°19.35 2°52.926 15.2374 3.960871 31.669859 7.392029
2008-05-30 08:25:23 51°19.35 2°52.911 15.2346 3.961079 31.671041 7.392029
2008-05-30 08:25:28 51°19.35 2°52.896 15.2379 3.961079 31.671041 7.392029
2008-05-30 08:25:33 51°19.35 2°52.881 15.234 3.961701 31.677916 7.426853
2008-05-30 08:25:38 51°19.35 2°52.866 15.2311 3.96056 31.668419 7.426853
2008-05-30 08:25:43 51°19.35 2°52.85 15.2313 3.95776 31.645471 7.496501
2008-05-30 08:25:48 51°19.349 2°52.835 15.2317 3.961701 31.681913 7.461677
2008-05-30 08:25:53 51°19.348 2°52.82 15.2312 3.961494 31.681397 7.426853
2008-05-30 08:25:58 51°19.347 2°52.807 15.2293 3.961494 31.681397 7.426853
2008-05-30 08:26:03 51°19.345 2°52.795 15.228 3.958175 31.652494 7.531325
2008-05-30 08:26:08 51°19.343 2°52.784 15.2296 3.959938 31.6702 7.566149
2008-05-30 08:26:13 51°19.341 2°52.774 15.227 3.957657 31.651202 7.600973
2008-05-30 08:26:18 51°19.339 2°52.764 15.2166 3.959005 31.664547 7.600973
2008-05-30 08:26:23 51°19.337 2°52.755 15.2155 3.961701 31.689243 7.670621
2008-05-30 08:26:28 51°19.335 2°52.746 15.2162 3.961701 31.689243 7.670621
2008-05-30 08:26:33 51°19.334 2°52.737 15.2129 3.961701 31.689909 7.670621
2008-05-30 08:26:38 51°19.333 2°52.729 15.2124 3.962842 31.70141 7.740269
2008-05-30 08:26:43 51°19.333 2°52.721 15.2019 3.962946 31.703668 7.670621
2008-05-30 08:26:48 51°19.333 2°52.714 15.2024 3.962842 31.704745 7.670621
2008-05-30 08:26:53 51°19.334 2°52.707 15.1999 3.961805 31.698167 7.740269
2008-05-30 08:26:58 51°19.334 2°52.7 15.1942 3.961805 31.698167 7.740269
2008-05-30 08:27:03 51°19.335 2°52.692 15.1907 3.963568 31.715219 7.635797
2008-05-30 08:27:08 51°19.335 2°52.686 15.1866 3.962013 31.704019 7.600973
2008-05-30 08:27:13 51°19.336 2°52.679 15.1894 3.963983 31.724257 7.566149
2008-05-30 08:27:18 51°19.336 2°52.673 15.1861 3.964502 31.73222 7.496501
2008-05-30 08:27:23 51°19.337 2°52.667 15.1842 3.961702 31.711254 7.496501
2008-05-30 08:27:28 51°19.338 2°52.661 15.1876 3.961702 31.711254 7.496501
2008-05-30 08:27:33 51°19.338 2°52.655 15.186 3.962324 31.719474 7.461677
2008-05-30 08:27:38 51°19.338 2°52.65 15.1853 3.962946 31.727696 7.357205
2008-05-30 08:27:43 51°19.339 2°52.645 15.1801 3.965954 31.75787 7.357205
2008-05-30 08:27:48 51°19.339 2°52.639 15.1791 3.96502 31.751548 7.357205
2008-05-30 08:27:53 51°19.34 2°52.635 15.1717 3.965435 31.757924 7.322381
2008-05-30 08:27:58 51°19.34 2°52.63 15.1688 3.965435 31.757924 7.322381
2008-05-30 08:28:03 51°19.34 2°52.625 15.1668 3.964191 31.747488 7.287557
2008-05-30 08:28:08 51°19.341 2°52.62 15.1671 3.966887 31.772219 7.217908
2008-05-30 08:28:13 51°19.341 2°52.616 15.1617 3.967406 31.777517 7.217908
2008-05-30 08:28:18 51°19.341 2°52.611 15.161 3.966887 31.774896 7.14826
2008-05-30 08:28:23 51°19.342 2°52.607 15.1625 3.967613 31.784724 7.14826
2008-05-30 08:28:28 51°19.342 2°52.602 15.1605 3.967613 31.784724 7.14826
2008-05-30 08:28:33 51°19.342 2°52.598 15.1589 3.96668 31.779739 7.113436
2008-05-30 08:28:38 51°19.343 2°52.593 15.1595 3.96865 31.800011 7.078612
2008-05-30 08:28:43 51°19.343 2°52.588 15.1535 3.967302 31.789983 7.008964
2008-05-30 08:28:48 51°19.343 2°52.583 15.1533 3.96751 31.795185 7.078612
2008-05-30 08:28:53 51°19.344 2°52.578 15.1538 3.96948 31.813452 7.008964
2008-05-30 08:28:58 51°19.344 2°52.573 15.145 3.96948 31.813452 7.008964
2008-05-30 08:29:03 51°19.344 2°52.568 15.1479 3.963984 31.765039 6.97414
2008-05-30 08:29:08 51°19.344 2°52.563 15.1438 3.96865 31.808724 6.939316
2008-05-30 08:29:13 51°19.344 2°52.558 15.1388 3.969169 31.815368 6.939316
2008-05-30 08:29:18 51°19.344 2°52.552 15.1385 3.969169 31.816709 7.008964
2008-05-30 08:29:23 51°19.344 2°52.547 15.1354 3.968547 31.812492 7.008964
2008-05-30 08:29:28 51°19.344 2°52.542 15.1373 3.968547 31.812492 7.008964
2008-05-30 08:29:33 51°19.344 2°52.537 15.1414 3.970206 31.829328 6.939316
2008-05-30 08:29:38 51°19.344 2°52.532 15.1424 3.969999 31.829488 6.939316
2008-05-30 08:29:43 51°19.343 2°52.527 15.1347 3.970206 31.834026 6.939316
2008-05-30 08:29:48 51°19.343 2°52.523 15.1281 3.969895 31.833931 6.939316
2008-05-30 08:29:53 51°19.342 2°52.519 15.1265 3.970725 31.84336 7.008964
2008-05-30 08:29:58 51°19.342 2°52.515 15.1188 3.970725 31.84336 7.008964
2008-05-30 08:30:03 51°19.341 2°52.511 15.1145 3.970414 31.841923 6.939316
2008-05-30 08:30:08 51°19.341 2°52.508 15.1136 3.971347 31.850264 6.904492
2008-05-30 08:30:13 51°19.34 2°52.505 15.1142 3.971865 31.855571 6.939316
2008-05-30 08:30:18 51°19.339 2°52.502 15.1141 3.965228 31.79894 6.939316
2008-05-30 08:30:23 51°19.338 2°52.499 15.1142 3.971969 31.861874 6.939316
2008-05-30 08:30:28 51°19.338 2°52.497 15.114 3.971969 31.861874 6.939316
2008-05-30 08:30:33 51°19.337 2°52.494 15.1081 3.972177 31.867762 6.904492
2008-05-30 08:30:38 51°19.336 2°52.492 15.1026 3.972799 31.877361 6.904492
2008-05-30 08:30:43 51°19.335 2°52.49 15.1027 3.97311 31.882835 6.939316
2008-05-30 08:30:48 51°19.334 2°52.488 15.099 3.972695 31.880471 6.904492
2008-05-30 08:30:53 51°19.334 2°52.487 15.1019 3.972488 31.879961 6.904492
2008-05-30 08:30:58 51°19.333 2°52.485 15.1004 3.972488 31.879961 6.904492
2008-05-30 08:31:03 51°19.333 2°52.484 15.0992 3.97311 31.885527 6.939316
2008-05-30 08:31:08 51°19.332 2°52.482 15.0991 3.972799 31.884763 6.869668
2008-05-30 08:31:13 51°19.331 2°52.482 15.0994 3.974459 31.902298 6.869668
2008-05-30 08:31:18 51°19.331 2°52.481 15.0995 3.974562 31.90592 6.904492
2008-05-30 08:31:23 51°19.33 2°52.48 15.0985 3.974459 31.90634 6.834844
2008-05-30 08:31:28 51°19.329 2°52.48 15.0947 3.974459 31.90634 6.834844
2008-05-30 08:31:33 51°19.329 2°52.479 15.0955 3.974459 31.907687 6.869668
2008-05-30 08:31:38 51°19.328 2°52.479 15.0937 3.974562 31.909289 6.869668
2008-05-30 08:31:43 51°19.328 2°52.479 15.0936 3.974459 31.909709 6.834844
2008-05-30 08:31:48 51°19.327 2°52.479 15.0949 3.974562 31.911311 6.834844
2008-05-30 08:31:53 51°19.327 2°52.479 15.0918 3.974666 31.912239 6.80002
2008-05-30 08:31:58 51°19.326 2°52.479 15.0964 3.974666 31.912239 6.80002
2008-05-30 08:32:03 51°19.326 2°52.479 15.0955 3.974666 31.912912 6.765196
2008-05-30 08:32:08 51°19.326 2°52.479 15.0974 3.974666 31.91426 6.80002
2008-05-30 08:32:13 51°19.325 2°52.48 15.0951 3.97477 31.916537 6.765196
2008-05-30 08:32:18 51°19.325 2°52.48 15.0971 3.97477 31.916537 6.80002
2008-05-30 08:32:23 51°19.324 2°52.481 15.0879 3.97477 31.917211 6.80002
2008-05-30 08:32:28 51°19.324 2°52.481 15.0882 3.97477 31.917211 6.80002
2008-05-30 08:32:33 51°19.324 2°52.482 15.091 3.97477 31.916537 6.834844
2008-05-30 08:32:38 51°19.323 2°52.482 15.0924 3.974874 31.917465 6.765196
2008-05-30 08:32:43 51°19.323 2°52.483 15.0847 3.974874 31.916791 6.730372
2008-05-30 08:32:48 51°19.323 2°52.483 15.0818 3.974977 31.918393 6.730372
2008-05-30 08:32:53 51°19.323 2°52.484 15.0829 3.975081 31.919995 6.730372
2008-05-30 08:32:58 51°19.322 2°52.485 15.0796 3.975081 31.919995 6.730372
2008-05-30 08:33:03 51°19.322 2°52.486 15.0815 3.975185 31.922946 6.695548
2008-05-30 08:33:08 51°19.322 2°52.486 15.0833 3.975185 31.924294 6.695548
2008-05-30 08:33:13 51°19.322 2°52.487 15.0737 3.975185 31.924969 6.730372
2008-05-30 08:33:18 51°19.322 2°52.487 15.0737 3.975288 31.92792 6.660724
2008-05-30 08:33:23 51°19.322 2°52.488 15.0725 3.975392 31.930872 6.695548
2008-05-30 08:33:28 51°19.321 2°52.488 15.0714 3.975392 31.930872 6.695548
2008-05-30 08:33:33 51°19.321 2°52.489 15.0759 3.975496 31.932475 6.695548
2008-05-30 08:33:38 51°19.321 2°52.489 15.0768 3.9756 31.934753 6.765196
2008-05-30 08:33:43 51°19.321 2°52.49 15.0736 3.975807 31.937285 6.695548
2008-05-30 08:33:48 51°19.321 2°52.491 15.0686 3.975911 31.940238 6.695548
2008-05-30 08:33:53 51°19.32 2°52.491 15.0684 3.975807 31.941334 6.6259
2008-05-30 08:33:58 51°19.32 2°52.492 15.0695 3.975807 31.941334 6.6259
2008-05-30 08:34:03 51°19.32 2°52.492 15.0671 3.975807 31.943359 6.660724
2008-05-30 08:34:08 51°19.32 2°52.493 15.0666 3.975807 31.944035 6.695548
2008-05-30 08:34:13 51°19.32 2°52.493 15.065 3.975807 31.943359 6.591076
2008-05-30 08:34:18 51°19.319 2°52.494 15.0651 3.975911 31.945638 6.660724
2008-05-30 08:34:23 51°19.319 2°52.494 15.0655 3.975911 31.946989 6.660724
2008-05-30 08:34:28 51°19.319 2°52.494 15.0645 3.975911 31.946989 6.660724
2008-05-30 08:34:33 51°19.318 2°52.494 15.0664 3.975911 31.947664 6.660724
2008-05-30 08:34:38 51°19.318 2°52.495 15.0607 3.975911 31.948339 6.6259
2008-05-30 08:34:43 51°19.317 2°52.495 15.0619 3.976015 31.950619 6.660724
2008-05-30 08:34:48 51°19.317 2°52.495 15.0634 3.976015 31.950619 6.6259
2008-05-30 08:34:53 51°19.317 2°52.495 15.0632 3.976015 31.95197 6.6259
2008-05-30 08:34:58 51°19.316 2°52.496 15.0625 3.976015 31.95197 6.6259
2008-05-30 08:35:03 51°19.316 2°52.496 15.0625 3.976015 31.95197 6.660724
2008-05-30 08:35:08 51°19.315 2°52.496 15.0639 3.976015 31.95197 6.591076
2008-05-30 08:35:13 51°19.315 2°52.496 15.0627 3.976015 31.953996 6.6259
2008-05-30 08:35:18 51°19.314 2°52.496 15.0638 3.976015 31.953996 6.6259
2008-05-30 08:35:23 51°19.314 2°52.496 15.0618 3.976015 31.953996 6.6259
2008-05-30 08:35:28 51°19.313 2°52.496 15.0623 3.976015 31.953996 6.6259
2008-05-30 08:35:33 51°19.313 2°52.496 15.0612 3.976015 31.954672 6.6259
2008-05-30 08:35:38 51°19.312 2°52.497 15.0441 3.976118 31.955601 6.6259
2008-05-30 08:35:43 51°19.312 2°52.497 15.0387 3.976015 31.954672 6.556251
2008-05-30 08:35:48 51°19.311 2°52.497 15.0386 3.976015 31.953996 6.556251
2008-05-30 08:35:53 51°19.311 2°52.497 15.0488 3.976118 31.954925 6.556251
2008-05-30 08:35:58 51°19.31 2°52.496 15.0445 3.976118 31.954925 6.556251
2008-05-30 08:36:03 51°19.31 2°52.496 15.0464 3.976326 31.955432 6.97414
2008-05-30 08:36:08 51°19.309 2°52.496 15.0565 3.976533 31.956614 6.939316
2008-05-30 08:36:13 51°19.309 2°52.496 15.056 3.976637 31.961597 6.97414
2008-05-30 08:36:18 51°19.308 2°52.496 15.0513 3.976222 31.963287 7.043788
2008-05-30 08:36:23 51°19.308 2°52.496 15.0572 3.974978 31.954165 6.97414
2008-05-30 08:36:28 51°19.308 2°52.496 15.0593 3.974978 31.954165 6.97414
2008-05-30 08:36:33 51°19.308 2°52.496 15.0726 3.974356 31.947915 6.869668
2008-05-30 08:36:38 51°19.308 2°52.495 15.0752 3.973837 31.942594 6.834844
2008-05-30 08:36:43 51°19.308 2°52.495 15.0684 3.972385 31.926212 6.869668
2008-05-30 08:36:48 51°19.307 2°52.495 15.0605 3.97197 31.920472 6.904492
2008-05-30 08:36:53 51°19.307 2°52.495 15.0554 3.972074 31.920726 6.869668
2008-05-30 08:36:58 51°19.307 2°52.494 15.0501 3.972074 31.920726 6.869668
2008-05-30 08:37:03 51°19.307 2°52.495 15.0562 3.971866 31.916844 6.869668
2008-05-30 08:37:08 51°19.306 2°52.494 15.0528 3.97197 31.915074 6.869668
2008-05-30 08:37:13 51°19.306 2°52.494 15.0498 3.972177 31.913558 6.904492
2008-05-30 08:37:18 51°19.306 2°52.494 15.0518 3.9728 31.91778 6.904492
2008-05-30 08:37:23 51°19.306 2°52.494 15.0494 3.973837 31.92909 6.904492
2008-05-30 08:37:28 51°19.305 2°52.494 15.041 3.973837 31.92909 6.904492
2008-05-30 08:37:33 51°19.305 2°52.494 15.0383 3.974459 31.937363 6.904492
2008-05-30 08:37:38 51°19.305 2°52.494 15.0449 3.974667 31.94057 6.97414
2008-05-30 08:37:43 51°19.305 2°52.494 15.0446 3.974978 31.944032 7.008964
2008-05-30 08:37:48 51°19.305 2°52.493 15.0431 3.975289 31.948845 6.97414
2008-05-30 08:37:53 51°19.304 2°52.493 15.0412 3.975496 31.952054 7.008964
2008-05-30 08:37:58 51°19.304 2°52.493 15.0438 3.975496 31.952054 7.008964
2008-05-30 08:38:03 51°19.304 2°52.493 15.0383 3.975911 31.957797 6.97414
2008-05-30 08:38:08 51°19.304 2°52.493 15.0369 3.976015 31.960753 6.904492
2008-05-30 08:38:13 51°19.304 2°52.493 15.0367 3.976015 31.961429 6.869668
2008-05-30 08:38:18 51°19.303 2°52.493 15.0351 3.976015 31.962105 6.904492
2008-05-30 08:38:23 51°19.303 2°52.493 15.0366 3.975911 31.961176 6.904492
2008-05-30 08:38:28 51°19.303 2°52.493 15.0398 3.975911 31.961176 6.904492
2008-05-30 08:38:33 51°19.303 2°52.492 15.039 3.976015 31.962105 6.904492
2008-05-30 08:38:38 51°19.303 2°52.492 15.0401 3.976119 31.964386 6.869668
2008-05-30 08:38:43 51°19.302 2°52.492 15.038 3.976119 31.965738 6.80002
2008-05-30 08:38:48 51°19.302 2°52.491 15.0367 3.976222 31.96802 6.834844
2008-05-30 08:38:53 51°19.302 2°52.491 15.0414 3.976222 31.968696 6.765196
2008-05-30 08:38:58 51°19.302 2°52.491 15.0399 3.976222 31.968696 6.765196
2008-05-30 08:39:03 51°19.301 2°52.491 15.0406 3.976119 31.968443 6.939316
2008-05-30 08:39:08 51°19.301 2°52.491 15.0457 3.976222 31.969372 6.904492
2008-05-30 08:39:13 51°19.301 2°52.491 15.0435 3.976222 31.968696 6.869668
2008-05-30 08:39:18 51°19.301 2°52.491 15.0423 3.976326 31.968949 6.869668
2008-05-30 08:39:23 51°19.3 2°52.491 15.0408 3.976326 31.968949 6.869668
2008-05-30 08:39:28 51°19.3 2°52.49 15.0442 3.976326 31.968949 6.869668
2008-05-30 08:39:33 51°19.3 2°52.49 15.0443 3.97643 31.969202 6.904492
2008-05-30 08:39:38 51°19.299 2°52.49 15.0444 3.97643 31.969202 6.904492
2008-05-30 08:39:43 51°19.299 2°52.49 15.0544 3.97643 31.96785 6.904492
2008-05-30 08:39:48 51°19.299 2°52.49 15.0418 3.976533 31.968779 6.939316
2008-05-30 08:39:53 51°19.299 2°52.49 15.0406 3.976533 31.968779 6.904492
2008-05-30 08:39:58 51°19.299 2°52.49 15.0377 3.976533 31.968779 6.904492
2008-05-30 08:40:03 51°19.298 2°52.49 15.0367 3.976533 31.968103 6.939316
2008-05-30 08:40:08 51°19.298 2°52.49 15.0384 3.976637 31.969032 6.939316
2008-05-30 08:40:13 51°19.298 2°52.489 15.036 3.976637 31.96768 6.904492
2008-05-30 08:40:18 51°19.298 2°52.489 15.0344 3.976637 31.966328 6.97414
2008-05-30 08:40:23 51°19.297 2°52.49 15.0368 3.976948 31.970467 6.97414
2008-05-30 08:40:28 51°19.297 2°52.49 15.0383 3.976948 31.970467 6.97414
2008-05-30 08:40:33 51°19.297 2°52.489 15.0376 3.977052 31.972749 6.939316
2008-05-30 08:40:38 51°19.297 2°52.489 15.0365 3.977156 31.975707 6.97414
2008-05-30 08:40:43 51°19.296 2°52.489 15.0398 3.977156 31.976383 6.904492
2008-05-30 08:40:48 51°19.296 2°52.489 15.0388 3.977156 31.977059 6.904492
2008-05-30 08:40:53 51°19.296 2°52.489 15.0418 3.977156 31.977736 6.904492
2008-05-30 08:40:58 51°19.296 2°52.489 15.045 3.977156 31.977736 6.904492
2008-05-30 08:41:03 51°19.295 2°52.489 15.0417 3.977052 31.976806 6.904492
2008-05-30 08:41:08 51°19.295 2°52.488 15.039 3.977052 31.976806 6.939316
2008-05-30 08:41:13 51°19.295 2°52.488 15.0362 3.977052 31.976806 6.939316
2008-05-30 08:41:18 51°19.295 2°52.488 15.0413 3.977052 31.97613 6.904492
2008-05-30 08:41:23 51°19.295 2°52.487 15.0415 3.977156 31.976383 6.834844
2008-05-30 08:41:28 51°19.295 2°52.487 15.0394 3.977156 31.976383 6.834844
2008-05-30 08:41:33 51°19.295 2°52.487 15.0391 3.977156 31.976383 6.869668
2008-05-30 08:41:38 51°19.294 2°52.486 15.0411 3.977156 31.97503 6.869668
2008-05-30 08:41:43 51°19.294 2°52.486 15.0413 3.977156 31.975707 6.904492
2008-05-30 08:41:48 51°19.294 2°52.486 15.0388 3.977259 31.97596 6.904492
2008-05-30 08:41:53 51°19.294 2°52.485 15.0429 3.977259 31.97596 6.834844
2008-05-30 08:41:58 51°19.294 2°52.485 15.0417 3.977259 31.97596 6.834844
2008-05-30 08:42:03 51°19.294 2°52.485 15.0392 3.977363 31.976213 6.80002
2008-05-30 08:42:08 51°19.294 2°52.484 15.0389 3.977467 31.977142 6.765196
2008-05-30 08:42:13 51°19.294 2°52.484 15.0414 3.977467 31.977818 6.834844
2008-05-30 08:42:18 51°19.294 2°52.484 15.0411 3.977467 31.978495 6.765196
2008-05-30 08:42:23 51°19.294 2°52.483 15.0456 3.977467 31.977818 6.765196
2008-05-30 08:42:28 51°19.295 2°52.483 15.0504 3.977467 31.977818 6.765196
2008-05-30 08:42:33 51°19.295 2°52.483 15.0507 3.977467 31.978495 6.869668
2008-05-30 08:42:38 51°19.295 2°52.482 15.0462 3.977467 31.977818 6.904492
2008-05-30 08:42:43 51°19.295 2°52.482 15.0461 3.97757 31.979424 6.939316
2008-05-30 08:42:48 51°19.296 2°52.482 15.0421 3.977467 31.978495 6.939316
2008-05-30 08:42:53 51°19.296 2°52.482 15.0451 3.977467 31.977818 6.939316
2008-05-30 08:42:58 51°19.297 2°52.482 15.047 3.977467 31.977818 6.939316
2008-05-30 08:43:03 51°19.298 2°52.481 15.0492 3.977467 31.975789 6.939316
2008-05-30 08:43:08 51°19.298 2°52.481 15.0513 3.977467 31.974437 6.939316
2008-05-30 08:43:13 51°19.299 2°52.481 15.0537 3.97757 31.975366 6.869668
2008-05-30 08:43:18 51°19.3 2°52.481 15.0468 3.977674 31.976295 6.80002
2008-05-30 08:43:23 51°19.301 2°52.48 15.0479 3.977674 31.976972 6.695548
2008-05-30 08:43:28 51°19.302 2°52.48 15.0482 3.977674 31.976972 6.695548
2008-05-30 08:43:33 51°19.302 2°52.48 15.046 3.977674 31.976972 6.695548
2008-05-30 08:43:38 51°19.303 2°52.48 15.0468 3.977674 31.975619 6.765196
2008-05-30 08:43:43 51°19.304 2°52.479 15.0481 3.977778 31.975196 6.80002
2008-05-30 08:43:48 51°19.305 2°52.479 15.0517 3.977778 31.973844 6.904492
2008-05-30 08:43:53 51°19.306 2°52.479 15.0527 3.977778 31.973844 6.97414
2008-05-30 08:43:58 51°19.307 2°52.479 15.0497 3.977778 31.973844 6.97414
2008-05-30 08:44:03 51°19.308 2°52.479 15.0491 3.977881 31.974773 6.939316
2008-05-30 08:44:08 51°19.309 2°52.479 15.0505 3.977882 31.975449 6.834844
2008-05-30 08:44:13 51°19.31 2°52.478 15.0512 3.977985 31.977054 6.765196
2008-05-30 08:44:18 51°19.31 2°52.478 15.0484 3.977985 31.976378 6.765196
2008-05-30 08:44:23 51°19.311 2°52.478 15.0475 3.977985 31.975026 6.730372
2008-05-30 08:44:28 51°19.312 2°52.478 15.0517 3.977985 31.975026 6.730372
2008-05-30 08:44:33 51°19.313 2°52.477 15.0449 3.978089 31.975279 6.765196
2008-05-30 08:44:38 51°19.314 2°52.477 15.046 3.978193 31.976884 6.730372
2008-05-30 08:44:43 51°19.314 2°52.477 15.0446 3.978296 31.977137 6.695548
2008-05-30 08:44:48 51°19.315 2°52.476 15.0435 3.9784 31.978066 6.695548
2008-05-30 08:44:53 51°19.316 2°52.476 15.0471 3.9784 31.978742 6.6259
2008-05-30 08:44:58 51°19.316 2°52.476 15.0437 3.9784 31.978742 6.6259
2008-05-30 08:45:03 51°19.317 2°52.476 15.0412 3.978504 31.980347 6.660724
2008-05-30 08:45:08 51°19.317 2°52.476 15.0403 3.978711 31.982206 6.6259
2008-05-30 08:45:13 51°19.317 2°52.476 15.0418 3.978815 31.984487 6.6259
2008-05-30 08:45:18 51°19.318 2°52.475 15.0365 3.978919 31.986093 6.660724
2008-05-30 08:45:23 51°19.318 2°52.476 15.038 3.978919 31.986093 6.695548
2008-05-30 08:45:28 51°19.318 2°52.476 15.0376 3.978919 31.986093 6.695548
2008-05-30 08:45:33 51°19.318 2°52.476 15.0322 3.979126 31.987951 6.660724
2008-05-30 08:45:38 51°19.318 2°52.476 15.0375 3.97923 31.989557 6.6259
2008-05-30 08:45:43 51°19.318 2°52.476 15.0363 3.97923 31.99091 6.660724
2008-05-30 08:45:48 51°19.318 2°52.476 15.0433 3.97923 31.992263 6.6259
2008-05-30 08:45:53 51°19.317 2°52.476 15.042 3.97923 31.993616 6.556251
2008-05-30 08:45:58 51°19.317 2°52.477 15.0424 3.97923 31.993616 6.556251
2008-05-30 08:46:03 51°19.317 2°52.477 15.0427 3.97923 31.994293 6.6259
2008-05-30 08:46:08 51°19.317 2°52.478 15.0426 3.97923 31.99497 6.591076
2008-05-30 08:46:13 51°19.317 2°52.478 15.0418 3.97923 31.995646 6.6259
2008-05-30 08:46:18 51°19.316 2°52.478 15.0378 3.979126 31.993364 6.591076
2008-05-30 08:46:23 51°19.316 2°52.479 15.039 3.97923 31.993616 6.556251
2008-05-30 08:46:28 51°19.316 2°52.479 15.0359 3.97923 31.993616 6.556251
2008-05-30 08:46:33 51°19.315 2°52.479 15.0319 3.979333 31.993192 6.591076
2008-05-30 08:46:38 51°19.315 2°52.48 15.0321 3.979437 31.994122 6.591076
2008-05-30 08:46:43 51°19.315 2°52.48 15.0306 3.979437 31.994122 6.660724
2008-05-30 08:46:48 51°19.315 2°52.48 15.0316 3.979437 31.994122 6.6259
2008-05-30 08:46:53 51°19.314 2°52.48 15.031 3.979437 31.994798 6.695548
2008-05-30 08:46:58 51°19.314 2°52.48 15.0309 3.979437 31.994798 6.695548
2008-05-30 08:47:03 51°19.314 2°52.481 15.0331 3.979541 31.996404 6.660724
2008-05-30 08:47:08 51°19.314 2°52.481 15.0345 3.979541 31.998435 6.591076
2008-05-30 08:47:13 51°19.314 2°52.481 15.0317 3.979437 31.999536 6.6259
2008-05-30 08:47:18 51°19.314 2°52.481 15.0335 3.979334 31.999283 6.591076
2008-05-30 08:47:23 51°19.314 2°52.482 15.0303 3.979334 31.99996 6.556251
2008-05-30 08:47:28 51°19.314 2°52.482 15.0308 3.979334 31.99996 6.556251
2008-05-30 08:47:33 51°19.313 2°52.482 15.0308 3.97923 31.999708 6.486603
2008-05-30 08:47:38 51°19.313 2°52.482 15.0338 3.979126 31.999455 6.382131
2008-05-30 08:47:43 51°19.313 2°52.482 15.0347 3.979126 31.998778 6.382131
2008-05-30 08:47:48 51°19.313 2°52.482 15.0432 3.979126 31.998778 6.277659
2008-05-30 08:47:53 51°19.313 2°52.482 15.0429 3.979022 31.997849 6.312483
2008-05-30 08:47:58 51°19.313 2°52.482 15.0464 3.979022 31.997849 6.312483
2008-05-30 08:48:03 51°19.313 2°52.482 15.0492 3.979022 31.998525 6.312483
2008-05-30 08:48:08 51°19.313 2°52.482 15.0504 3.978919 31.997596 6.347307
2008-05-30 08:48:13 51°19.313 2°52.482 15.0484 3.978711 31.995737 6.312483
2008-05-30 08:48:18 51°19.313 2°52.482 15.0522 3.978504 31.991847 6.347307
2008-05-30 08:48:23 51°19.313 2°52.482 15.054 3.978504 31.990494 6.382131
2008-05-30 08:48:28 51°19.313 2°52.482 15.056 3.978504 31.990494 6.382131
2008-05-30 08:48:33 51°19.314 2°52.482 15.0541 3.978504 31.987111 6.382131
2008-05-30 08:48:38 51°19.314 2°52.482 15.0536 3.978504 31.985082 6.416955
2008-05-30 08:48:43 51°19.314 2°52.482 15.0581 3.978504 31.982376 6.451779
2008-05-30 08:48:48 51°19.314 2°52.482 15.0556 3.978504 31.981024 6.521427
2008-05-30 08:48:53 51°19.314 2°52.482 15.0538 3.978504 31.979671 6.556251
2008-05-30 08:48:58 51°19.314 2°52.482 15.056 3.978504 31.979671 6.556251
2008-05-30 08:49:03 51°19.314 2°52.482 15.0578 3.978504 31.978319 6.660724
2008-05-30 08:49:08 51°19.314 2°52.482 15.0573 3.978607 31.977896 6.6259
2008-05-30 08:49:13 51°19.314 2°52.482 15.0603 3.978607 31.976544 6.6259
2008-05-30 08:49:18 51°19.314 2°52.482 15.0585 3.978711 31.976797 6.6259
2008-05-30 08:49:23 51°19.315 2°52.482 15.0586 3.978815 31.977726 6.591076
2008-05-30 08:49:28 51°19.315 2°52.483 15.0603 3.978815 31.977726 6.591076
2008-05-30 08:49:33 51°19.315 2°52.483 15.0579 3.978815 31.97705 6.591076
2008-05-30 08:49:38 51°19.315 2°52.483 15.0602 3.978918 31.977978 6.556251
2008-05-30 08:49:43 51°19.315 2°52.483 15.0597 3.978918 31.977302 6.6259
2008-05-30 08:49:48 51°19.315 2°52.483 15.0612 3.978918 31.977302 6.486603
2008-05-30 08:49:53 51°19.316 2°52.483 15.0652 3.978918 31.976627 6.451779
2008-05-30 08:49:58 51°19.316 2°52.483 15.0627 3.978918 31.976627 6.451779
2008-05-30 08:50:03 51°19.316 2°52.484 15.0626 3.979022 31.976879 6.416955
2008-05-30 08:50:08 51°19.316 2°52.484 15.064 3.979126 31.977132 6.382131
2008-05-30 08:50:13 51°19.316 2°52.484 15.062 3.979126 31.977132 6.416955
2008-05-30 08:50:18 51°19.316 2°52.484 15.0621 3.979022 31.976204 6.556251
2008-05-30 08:50:23 51°19.316 2°52.484 15.0632 3.978918 31.973923 6.521427
2008-05-30 08:50:28 51°19.317 2°52.485 15.0619 3.978918 31.973923 6.521427
2008-05-30 08:50:33 51°19.317 2°52.485 15.0657 3.979022 31.974176 6.416955
2008-05-30 08:50:38 51°19.317 2°52.485 15.0625 3.979022 31.9735 6.382131
2008-05-30 08:50:43 51°19.317 2°52.485 15.0614 3.979126 31.974429 6.416955
2008-05-30 08:50:48 51°19.317 2°52.485 15.0594 3.979126 31.975105 6.382131
2008-05-30 08:50:53 51°19.317 2°52.485 15.0575 3.979126 31.975105 6.451779
2008-05-30 08:50:58 51°19.317 2°52.485 15.0551 3.979126 31.975105 6.451779
2008-05-30 08:51:03 51°19.317 2°52.485 15.0552 3.979126 31.975105 6.521427
2008-05-30 08:51:08 51°19.318 2°52.486 15.0549 3.979022 31.9735 6.556251
2008-05-30 08:51:13 51°19.318 2°52.486 15.06 3.979022 31.9735 6.486603
2008-05-30 08:51:18 51°19.318 2°52.486 15.0593 3.979022 31.974176 6.6259
2008-05-30 08:51:23 51°19.318 2°52.486 15.0625 3.979022 31.975528 6.556251
2008-05-30 08:51:28 51°19.319 2°52.486 15.0623 3.979022 31.975528 6.556251
2008-05-30 08:51:33 51°19.319 2°52.486 15.0625 3.979022 31.976204 6.486603
2008-05-30 08:51:38 51°19.319 2°52.486 15.0611 3.979022 31.976879 6.451779
2008-05-30 08:51:43 51°19.319 2°52.486 15.065 3.979022 31.977555 6.486603
2008-05-30 08:51:48 51°19.319 2°52.486 15.0639 3.978918 31.976627 6.451779
2008-05-30 08:51:53 51°19.319 2°52.486 15.0607 3.978918 31.975951 6.382131
2008-05-30 08:51:58 51°19.32 2°52.486 15.0604 3.978918 31.975951 6.382131
2008-05-30 08:52:03 51°19.32 2°52.486 15.0633 3.978815 31.974346 6.382131
2008-05-30 08:52:08 51°19.32 2°52.486 15.0635 3.978815 31.97367 6.347307
2008-05-30 08:52:13 51°19.32 2°52.486 15.0615 3.978918 31.973923 6.382131
2008-05-30 08:52:18 51°19.321 2°52.486 15.0644 3.978918 31.973247 6.382131
2008-05-30 08:52:23 51°19.321 2°52.486 15.0655 3.979022 31.974176 6.416955
2008-05-30 08:52:28 51°19.321 2°52.485 15.0627 3.979022 31.974176 6.416955
2008-05-30 08:52:33 51°19.322 2°52.485 15.0623 3.979022 31.974176 6.486603
2008-05-30 08:52:38 51°19.322 2°52.485 15.0612 3.979022 31.974176 6.451779
2008-05-30 08:52:43 51°19.322 2°52.485 15.0606 3.979022 31.974176 6.451779
2008-05-30 08:52:48 51°19.323 2°52.485 15.0619 3.978918 31.973247 6.486603
2008-05-30 08:52:53 51°19.323 2°52.485 15.0653 3.978918 31.972571 6.486603
2008-05-30 08:52:58 51°19.324 2°52.485 15.0654 3.978918 31.972571 6.486603
2008-05-30 08:53:03 51°19.324 2°52.485 15.0688 3.978918 31.972571 6.451779
2008-05-30 08:53:08 51°19.324 2°52.485 15.0691 3.979022 31.974176 6.486603
2008-05-30 08:53:13 51°19.324 2°52.485 15.0689 3.979126 31.975105 6.486603
2008-05-30 08:53:18 51°19.325 2°52.485 15.0692 3.979022 31.974176 6.556251
2008-05-30 08:53:23 51°19.325 2°52.485 15.0713 3.979022 31.974176 6.556251
2008-05-30 08:53:28 51°19.325 2°52.484 15.0711 3.979022 31.974176 6.556251
2008-05-30 08:53:33 51°19.326 2°52.485 15.0715 3.979022 31.972824 6.486603
2008-05-30 08:53:38 51°19.326 2°52.484 15.0697 3.978918 31.97122 6.451779
2008-05-30 08:53:43 51°19.326 2°52.484 15.0725 3.978918 31.969869 6.486603
2008-05-30 08:53:48 51°19.326 2°52.484 15.0673 3.978918 31.969193 6.521427
2008-05-30 08:53:53 51°19.326 2°52.485 15.0677 3.978918 31.968517 6.451779
2008-05-30 08:53:58 51°19.326 2°52.484 15.0657 3.978918 31.968517 6.451779
2008-05-30 08:54:03 51°19.326 2°52.484 15.0664 3.979022 31.968095 6.591076
2008-05-30 08:54:08 51°19.326 2°52.484 15.0637 3.979022 31.967419 6.591076
2008-05-30 08:54:13 51°19.326 2°52.485 15.0661 3.979126 31.968348 6.591076
2008-05-30 08:54:18 51°19.326 2°52.485 15.0654 3.979229 31.969952 6.521427
2008-05-30 08:54:23 51°19.326 2°52.485 15.0647 3.979333 31.970881 6.486603
2008-05-30 08:54:28 51°19.326 2°52.485 15.0654 3.979333 31.970881 6.486603
2008-05-30 08:54:33 51°19.326 2°52.485 15.0649 3.979437 31.973161 6.486603
2008-05-30 08:54:38 51°19.326 2°52.485 15.0645 3.979437 31.973836 6.486603
2008-05-30 08:54:43 51°19.326 2°52.485 15.0633 3.979333 31.973583 6.451779
2008-05-30 08:54:48 51°19.325 2°52.485 15.0639 3.979333 31.973583 6.451779
2008-05-30 08:54:53 51°19.325 2°52.486 15.0664 3.979333 31.973583 6.382131
2008-05-30 08:54:58 51°19.325 2°52.486 15.0649 3.979333 31.973583 6.382131
2008-05-30 08:55:03 51°19.324 2°52.486 15.0659 3.979437 31.974512 6.382131
2008-05-30 08:55:08 51°19.324 2°52.486 15.0664 3.979437 31.975188 6.416955
2008-05-30 08:55:13 51°19.324 2°52.486 15.0666 3.979437 31.975188 6.382131
2008-05-30 08:55:18 51°19.323 2°52.487 15.0663 3.979437 31.975188 6.382131
2008-05-30 08:55:23 51°19.323 2°52.487 15.0688 3.979437 31.975188 6.277659
2008-05-30 08:55:28 51°19.322 2°52.488 15.071 3.979437 31.975188 6.277659
2008-05-30 08:55:33 51°19.322 2°52.488 15.0748 3.979541 31.975441 6.312483
2008-05-30 08:55:38 51°19.321 2°52.488 15.0802 3.979644 31.975694 6.242835
2008-05-30 08:55:43 51°19.321 2°52.488 15.0815 3.979644 31.975694 6.277659
2008-05-30 08:55:48 51°19.32 2°52.488 15.0827 3.979644 31.975694 6.277659
2008-05-30 08:55:53 51°19.32 2°52.489 15.0821 3.979541 31.974765 6.382131
2008-05-30 08:55:58 51°19.32 2°52.489 15.0829 3.979541 31.974765 6.382131
2008-05-30 08:56:03 51°19.319 2°52.489 15.0822 3.979437 31.972485 6.382131
2008-05-30 08:56:08 51°19.319 2°52.49 15.0844 3.979229 31.968601 6.347307
2008-05-30 08:56:13 51°19.318 2°52.49 15.0853 3.979126 31.964295 6.312483
2008-05-30 08:56:18 51°19.318 2°52.49 15.0869 3.979126 31.96227 6.347307
2008-05-30 08:56:23 51°19.317 2°52.49 15.0863 3.979126 31.960919 6.347307
2008-05-30 08:56:28 51°19.317 2°52.491 15.0878 3.979126 31.960919 6.347307
2008-05-30 08:56:33 51°19.317 2°52.491 15.0842 3.979229 31.961172 6.312483
2008-05-30 08:56:38 51°19.316 2°52.491 15.0847 3.979229 31.960497 6.382131
2008-05-30 08:56:43 51°19.316 2°52.491 15.0836 3.979229 31.959147 6.347307
2008-05-30 08:56:48 51°19.315 2°52.491 15.0837 3.979126 31.957544 6.347307
2008-05-30 08:56:53 51°19.315 2°52.491 15.0851 3.979126 31.957544 6.382131
2008-05-30 08:56:58 51°19.314 2°52.491 15.0875 3.979126 31.957544 6.382131
2008-05-30 08:57:03 51°19.314 2°52.491 15.0892 3.979229 31.957122 6.347307
2008-05-30 08:57:08 51°19.314 2°52.492 15.0916 3.979229 31.957122 6.416955
2008-05-30 08:57:13 51°19.313 2°52.492 15.0954 3.979333 31.958725 6.451779
2008-05-30 08:57:18 51°19.312 2°52.492 15.0963 3.979333 31.958725 6.416955
2008-05-30 08:57:23 51°19.312 2°52.493 15.097 3.979229 31.957797 6.416955
2008-05-30 08:57:28 51°19.311 2°52.493 15.0986 3.979229 31.957797 6.416955
2008-05-30 08:57:33 51°19.311 2°52.493 15.0982 3.979126 31.956194 6.451779
2008-05-30 08:57:38 51°19.311 2°52.494 15.0979 3.979022 31.953916 6.486603
2008-05-30 08:57:43 51°19.31 2°52.494 15.0986 3.978918 31.951638 6.416955
2008-05-30 08:57:48 51°19.31 2°52.494 15.099 3.978814 31.948685 6.416955
2008-05-30 08:57:53 51°19.309 2°52.494 15.1004 3.978814 31.946661 6.416955
2008-05-30 08:57:58 51°19.309 2°52.495 15.1012 3.978814 31.946661 6.416955
2008-05-30 08:58:03 51°19.308 2°52.495 15.1054 3.978814 31.945987 6.451779
2008-05-30 08:58:08 51°19.308 2°52.495 15.1042 3.978814 31.944638 6.451779
2008-05-30 08:58:13 51°19.307 2°52.495 15.1046 3.978814 31.943963 6.521427
2008-05-30 08:58:18 51°19.307 2°52.495 15.1071 3.978814 31.943963 6.556251
2008-05-30 08:58:23 51°19.307 2°52.495 15.1106 3.978814 31.943289 6.521427
2008-05-30 08:58:28 51°19.306 2°52.496 15.1146 3.978814 31.943289 6.521427
2008-05-30 08:58:33 51°19.306 2°52.496 15.1136 3.978711 31.941012 6.521427
2008-05-30 08:58:38 51°19.305 2°52.496 15.1153 3.978607 31.938736 6.556251
2008-05-30 08:58:43 51°19.305 2°52.496 15.1161 3.978503 31.936459 6.521427
2008-05-30 08:58:48 51°19.305 2°52.496 15.1167 3.978399 31.934857 6.556251
2008-05-30 08:58:53 51°19.304 2°52.496 15.1191 3.978192 31.931654 6.591076
2008-05-30 08:58:58 51°19.304 2°52.496 15.119 3.978192 31.931654 6.591076
2008-05-30 08:59:03 51°19.303 2°52.496 15.1224 3.977984 31.927103 6.486603
2008-05-30 08:59:08 51°19.303 2°52.496 15.123 3.977881 31.924153 6.486603
2008-05-30 08:59:13 51°19.303 2°52.496 15.1241 3.977881 31.922806 6.521427
2008-05-30 08:59:18 51°19.302 2°52.496 15.1268 3.977777 31.921205 6.451779
2008-05-30 08:59:23 51°19.302 2°52.496 15.1274 3.977777 31.920531 6.416955
2008-05-30 08:59:28 51°19.302 2°52.495 15.1291 3.977777 31.920531 6.416955
2008-05-30 08:59:33 51°19.302 2°52.495 15.1312 3.977673 31.918257 6.451779
2008-05-30 08:59:38 51°19.302 2°52.495 15.1311 3.977673 31.91691 6.521427
2008-05-30 08:59:43 51°19.301 2°52.495 15.1315 3.977673 31.915563 6.556251
2008-05-30 08:59:48 51°19.301 2°52.495 15.1337 3.977673 31.914216 6.521427
2008-05-30 08:59:53 51°19.301 2°52.495 15.1313 3.977569 31.911269 6.591076
2008-05-30 08:59:58 51°19.301 2°52.494 15.1332 3.977569 31.911269 6.591076
2008-05-30 09:00:03 51°19.301 2°52.494 15.1326 3.977569 31.909922 6.451779
2008-05-30 09:00:08 51°19.301 2°52.494 15.1329 3.977466 31.907649 6.556251
2008-05-30 09:00:13 51°19.301 2°52.494 15.1315 3.977362 31.905376 6.556251
2008-05-30 09:00:18 51°19.301 2°52.493 15.1344 3.977258 31.903775 6.6259
2008-05-30 09:00:23 51°19.301 2°52.493 15.134 3.977362 31.903357 6.660724
2008-05-30 09:00:28 51°19.302 2°52.493 15.1335 3.977362 31.903357 6.660724
2008-05-30 09:00:33 51°19.302 2°52.493 15.1351 3.977258 31.90243 6.660724
2008-05-30 09:00:38 51°19.302 2°52.493 15.1351 3.977258 31.90243 6.695548
2008-05-30 09:00:43 51°19.302 2°52.492 15.135 3.977258 31.901757 6.660724
2008-05-30 09:00:48 51°19.302 2°52.492 15.1355 3.977258 31.901757 6.6259
2008-05-30 09:00:53 51°19.303 2°52.492 15.1335 3.977258 31.901757 6.6259
2008-05-30 09:00:58 51°19.303 2°52.491 15.1334 3.977258 31.901757 6.6259
2008-05-30 09:01:03 51°19.303 2°52.491 15.1329 3.977258 31.901084 6.730372
2008-05-30 09:01:08 51°19.303 2°52.491 15.1327 3.977258 31.901084 6.660724
2008-05-30 09:01:13 51°19.304 2°52.49 15.1319 3.977258 31.900411 6.730372
2008-05-30 09:01:18 51°19.304 2°52.49 15.1317 3.977258 31.900411 6.695548
2008-05-30 09:01:23 51°19.304 2°52.49 15.1324 3.977258 31.900411 6.765196
2008-05-30 09:01:28 51°19.305 2°52.489 15.1292 3.977258 31.900411 6.765196
2008-05-30 09:01:33 51°19.305 2°52.489 15.1306 3.977258 31.900411 6.730372
2008-05-30 09:01:38 51°19.305 2°52.489 15.1293 3.977362 31.901338 6.660724
2008-05-30 09:01:43 51°19.306 2°52.488 15.1281 3.977466 31.902938 6.6259
2008-05-30 09:01:48 51°19.306 2°52.488 15.1267 3.976947 31.898303 6.591076
2008-05-30 09:01:53 51°19.307 2°52.488 15.1278 3.977569 31.904538 6.556251
2008-05-30 09:01:58 51°19.307 2°52.487 15.1237 3.977569 31.904538 6.556251
2008-05-30 09:02:03 51°19.307 2°52.487 15.1204 3.977673 31.905465 6.591076
2008-05-30 09:02:08 51°19.308 2°52.487 15.1207 3.977362 31.903357 6.660724
2008-05-30 09:02:13 51°19.308 2°52.487 15.1237 3.977569 31.905884 6.6259
2008-05-30 09:02:18 51°19.308 2°52.486 15.1272 3.977258 31.903775 6.6259
2008-05-30 09:02:23 51°19.309 2°52.486 15.1267 3.977777 31.909757 6.660724
2008-05-30 09:02:28 51°19.309 2°52.485 15.1293 3.977777 31.909757 6.660724
2008-05-30 09:02:33 51°19.31 2°52.485 15.1284 3.97788 31.910684 6.6259
2008-05-30 09:02:38 51°19.31 2°52.485 15.1302 3.978088 31.914559 6.591076
2008-05-30 09:02:43 51°19.311 2°52.485 15.1311 3.978192 31.916832 6.486603
2008-05-30 09:02:48 51°19.311 2°52.484 15.1292 3.978088 31.915905 6.486603
2008-05-30 09:02:53 51°19.311 2°52.484 15.1292 3.977984 31.913631 6.451779
2008-05-30 09:02:58 51°19.312 2°52.484 15.1296 3.977984 31.913631 6.451779
2008-05-30 09:03:03 51°19.312 2°52.484 15.1268 3.977984 31.912285 6.416955
2008-05-30 09:03:08 51°19.312 2°52.483 15.1257 3.977984 31.911612 6.312483
2008-05-30 09:03:13 51°19.313 2°52.483 15.1261 3.978088 31.911866 6.347307
2008-05-30 09:03:18 51°19.313 2°52.483 15.124 3.978192 31.91212 6.382131
2008-05-30 09:03:23 51°19.314 2°52.482 15.125 3.978192 31.91212 6.312483
2008-05-30 09:03:28 51°19.314 2°52.482 15.1266 3.978192 31.91212 6.312483
2008-05-30 09:03:33 51°19.314 2°52.482 15.1267 3.978295 31.913047 6.312483
2008-05-30 09:03:38 51°19.314 2°52.482 15.1264 3.978399 31.914647 6.347307
2008-05-30 09:03:43 51°19.315 2°52.481 15.1281 3.978606 31.916502 6.312483
2008-05-30 09:03:48 51°19.315 2°52.481 15.1275 3.978606 31.917848 6.347307
2008-05-30 09:03:53 51°19.315 2°52.481 15.1272 3.97871 31.919449 6.208011
2008-05-30 09:03:58 51°19.316 2°52.481 15.126 3.97871 31.919449 6.208011
2008-05-30 09:04:03 51°19.316 2°52.481 15.1252 3.97871 31.918775 6.277659
2008-05-30 09:04:08 51°19.316 2°52.48 15.1243 3.978606 31.917848 6.208011
2008-05-30 09:04:13 51°19.316 2°52.48 15.123 3.978606 31.917848 6.173187
2008-05-30 09:04:18 51°19.317 2°52.48 15.1219 3.978606 31.917848 6.208011
2008-05-30 09:04:23 51°19.317 2°52.479 15.119 3.975806 31.892814 6.242835
2008-05-30 09:04:28 51°19.317 2°52.479 15.1168 3.975806 31.892814 6.242835
2008-05-30 09:04:33 51°19.318 2°52.479 15.114 3.97871 31.918775 6.208011
2008-05-30 09:04:38 51°19.318 2°52.479 15.1133 3.978814 31.919703 6.208011
2008-05-30 09:04:43 51°19.318 2°52.478 15.1126 3.978918 31.921303 6.277659
2008-05-30 09:04:48 51°19.318 2°52.478 15.112 3.979021 31.922904 6.208011
2008-05-30 09:04:53 51°19.318 2°52.478 15.1139 3.979021 31.924251 6.208011
2008-05-30 09:04:58 51°19.318 2°52.478 15.1135 3.979021 31.924251 6.208011
2008-05-30 09:05:03 51°19.318 2°52.478 15.1123 3.979021 31.925598 6.277659
2008-05-30 09:05:08 51°19.319 2°52.477 15.1101 3.979021 31.927619 6.242835
2008-05-30 09:05:13 51°19.319 2°52.477 15.1089 3.979021 31.928293 6.312483
2008-05-30 09:05:18 51°19.319 2°52.477 15.1068 3.979021 31.930314 6.312483
2008-05-30 09:05:23 51°19.319 2°52.477 15.1043 3.979021 31.930988 6.208011
2008-05-30 09:05:28 51°19.319 2°52.477 15.1018 3.979021 31.930988 6.208011
2008-05-30 09:05:33 51°19.318 2°52.476 15.1018 3.979125 31.931915 6.242835
2008-05-30 09:05:38 51°19.318 2°52.476 15.1007 3.979229 31.933517 6.242835
2008-05-30 09:05:43 51°19.318 2°52.476 15.101 3.979333 31.935118 6.347307
2008-05-30 09:05:48 51°19.318 2°52.476 15.1003 3.979436 31.937394 6.242835
2008-05-30 09:05:53 51°19.318 2°52.476 15.1006 3.97954 31.940344 6.312483
2008-05-30 09:05:58 51°19.318 2°52.476 15.1009 3.97954 31.940344 6.312483
2008-05-30 09:06:03 51°19.318 2°52.476 15.1008 3.979644 31.943294 6.347307
2008-05-30 09:06:08 51°19.317 2°52.476 15.0996 3.979644 31.944642 6.312483
2008-05-30 09:06:13 51°19.317 2°52.475 15.0982 3.979644 31.945991 6.416955
2008-05-30 09:06:18 51°19.317 2°52.475 15.0998 3.97954 31.945738 6.416955
2008-05-30 09:06:23 51°19.316 2°52.475 15.101 3.97954 31.945738 6.382131
2008-05-30 09:06:28 51°19.316 2°52.475 15.1014 3.97954 31.945738 6.382131
2008-05-30 09:06:33 51°19.316 2°52.475 15.1005 3.97954 31.946412 6.312483
2008-05-30 09:06:38 51°19.315 2°52.475 15.0994 3.97954 31.946412 6.451779
2008-05-30 09:06:43 51°19.315 2°52.475 15.098 3.979644 31.948014 6.416955
2008-05-30 09:06:48 51°19.315 2°52.475 15.0975 3.97954 31.947761 6.451779
2008-05-30 09:06:53 51°19.314 2°52.475 15.097 3.97954 31.947087 6.451779
2008-05-30 09:06:58 51°19.314 2°52.475 15.0972 3.97954 31.947087 6.451779
2008-05-30 09:07:03 51°19.314 2°52.474 15.101 3.979436 31.945484 6.486603
2008-05-30 09:07:08 51°19.313 2°52.474 15.1013 3.979436 31.94481 6.591076
2008-05-30 09:07:13 51°19.313 2°52.474 15.1021 3.97954 31.946412 6.591076
2008-05-30 09:07:18 51°19.313 2°52.474 15.1015 3.97954 31.947087 6.660724
2008-05-30 09:07:23 51°19.312 2°52.474 15.1037 3.979644 31.948689 6.695548
2008-05-30 09:07:28 51°19.312 2°52.473 15.103 3.979644 31.948689 6.695548
2008-05-30 09:07:33 51°19.311 2°52.473 15.1059 3.97954 31.948435 6.695548